GFSFLT1_prec_precacc_024.txt.gz
Total_Precipitation_Accumulation
0.00 0.02 0.02 0.02 0.03 0.30 0.47 0.48 0.49 0.38 0.08 0.02 0.02 0.01 0.00 0.00 0.00 0.00 0.00 0.00 0.00 0.00 0.00 0.00 0.00 0.00 0.00 0.00 0.00 0.00 0.00 0.00
0.01 0.03 0.04 0.04 0.13 0.35 0.50 0.60 0.33 0.04 0.03 0.03 0.02 0.01 0.01 0.02 0.01 0.00 0.00 0.00 0.00 0.00 0.00 0.00 0.00 0.00 0.00 0.00 0.00 0.00 0.00 0.00
0.00 0.03 0.08 0.23 0.37 0.35 0.23 0.06 0.01 0.00 0.01 0.02 0.03 0.02 0.01 0.00 0.00 0.00 0.00 0.00 0.00 0.00 0.00 0.00 0.00 0.00 0.00 0.00 0.00 0.00 0.00 0.00
0.04 0.08 0.12 0.09 0.04 0.00 0.00 0.00 0.00 0.00 0.01 0.01 0.00 0.00 0.00 0.00 0.00 0.00 0.00 0.00 0.00 0.00 0.00 0.00 0.00 0.00 0.00 0.00 0.00 0.00 0.00 0.00
0.02 0.00 0.00 0.00 0.00 0.00 0.00 0.00 0.00 0.00 0.00 0.00 0.00 0.00 0.00 0.00 0.00 0.00 0.00 0.00 0.00 0.00 0.00 0.00 0.00 0.00 0.00 0.00 0.00 0.00 0.00 0.00
0.00 0.00 0.00 0.00 0.00 0.00 0.00 0.00 0.00 0.00 0.00 0.00 0.00 0.00 0.00 0.00 0.00 0.00 0.00 0.00 0.00 0.00 0.00 0.00 0.00 0.00 0.00 0.00 0.00 0.00 0.00 0.00
0.00 0.00 0.00 0.00 0.00 0.00 0.00 0.00 0.00 0.00 0.00 0.00 0.00 0.00 0.00 0.00 0.00 0.00 0.00 0.00 0.01 0.00 0.00 0.00 0.00 0.00 0.00 0.00 0.00 0.00 0.00 0.00
0.01 0.00 0.00 0.00 0.00 0.00 0.00 0.00 0.00 0.00 0.00 0.00 0.00 0.00 0.00 0.00 0.00 0.00 0.00 0.00 0.00 0.00 0.00 0.00 0.00 0.00 0.00 0.00 0.01 0.00 0.00 0.00
0.00 0.00 0.00 0.00 0.00 0.00 0.00 0.00 0.00 0.00 0.00 0.00 0.00 0.00 0.00 0.00 0.00 0.00 0.00 0.00 0.00 0.00 0.00 0.00 0.00 0.00 0.00 0.01 0.02 0.01 0.01 0.03
0.00 0.00 0.00 0.00 0.00 0.00 0.00 0.00 0.00 0.00 0.00 0.00 0.00 0.00 0.00 0.00 0.00 0.00 0.00 0.00 0.00 0.00 0.00 0.00 0.00 0.00 0.00 0.00 0.00 0.03 0.05 0.08
0.00 0.00 0.00 0.00 0.00 0.00 0.00 0.00 0.00 0.00 0.00 0.00 0.00 0.00 0.00 0.00 0.00 0.00 0.00 0.00 0.00 0.00 0.00 0.00 0.00 0.00 0.00 0.01 0.02 0.03 0.04 0.03
0.00 0.00 0.00 0.00 0.00 0.00 0.00 0.00 0.00 0.00 0.00 0.00 0.00 0.00 0.00 0.00 0.00 0.00 0.00 0.00 0.00 0.00 0.00 0.01 0.01 0.03 0.07 0.08 0.05 0.03 0.03 0.03
0.00 0.00 0.00 0.00 0.00 0.00 0.00 0.00 0.00 0.00 0.00 0.00 0.00 0.00 0.00 0.00 0.00 0.00 0.00 0.01 0.01 0.02 0.01 0.03 0.05 0.06 0.06 0.04 0.02 0.01 0.01 0.01
0.00 0.00 0.00 0.00 0.00 0.00 0.00 0.00 0.00 0.00 0.00 0.00 0.00 0.00 0.00 0.00 0.00 0.01 0.01 0.02 0.02 0.02 0.03 0.04 0.03 0.02 0.01 0.01 0.00 0.00 0.00 0.00
0.00 0.00 0.00 0.00 0.00 0.00 0.00 0.00 0.00 0.00 0.00 0.00 0.00 0.01 0.01 0.01 0.00 0.02 0.02 0.03 0.02 0.00 0.00 0.00 0.00 0.00 0.00 0.00 0.00 0.00 0.00 0.00
0.00 0.00 0.00 0.00 0.00 0.00 0.00 0.00 0.00 0.00 0.00 0.00 0.00 0.00 0.01 0.02 0.02 0.03 0.06 0.02 0.01 0.00 0.00 0.00 0.00 0.00 0.00 0.00 0.00 0.00 0.00 0.00
0.00 0.00 0.00 0.00 0.00 0.00 0.00 0.00 0.00 0.00 0.01 0.01 0.00 0.01 0.02 0.03 0.04 0.05 0.01 0.01 0.01 0.00 0.00 0.00 0.00 0.00 0.00 0.00 0.00 0.00 0.00 0.00
0.00 0.00 0.00 0.00 0.00 0.00 0.00 0.00 0.00 0.00 0.00 0.01 0.01 0.02 0.02 0.02 0.02 0.03 0.03 0.03 0.01 0.00 0.00 0.00 0.00 0.00 0.00 0.00 0.00 0.00 0.00 0.00
0.00 0.00 0.00 0.00 0.00 0.00 0.00 0.00 0.00 0.00 0.00 0.01 0.03 0.02 0.01 0.02 0.05 0.04 0.02 0.00 0.00 0.00 0.00 0.00 0.00 0.00 0.00 0.00 0.00 0.00 0.00 0.00

GFSFLT1_prec_precacc_030.txt.gz
Total_Precipitation_Accumulation
0.00 0.02 0.04 0.05 0.04 0.30 0.54 0.60 0.76 1.00 0.60 0.16 0.06 0.05 0.02 0.00 0.01 0.02 0.01 0.00 0.00 0.00 0.00 0.00 0.00 0.00 0.00 0.00 0.00 0.00 0.00 0.00
0.02 0.05 0.06 0.08 0.16 0.38 0.62 0.94 0.82 0.27 0.09 0.05 0.04 0.02 0.02 0.03 0.02 0.00 0.00 0.00 0.00 0.00 0.00 0.00 0.00 0.00 0.00 0.00 0.00 0.00 0.00 0.00
0.01 0.04 0.10 0.28 0.43 0.42 0.30 0.11 0.02 0.01 0.01 0.02 0.03 0.02 0.01 0.00 0.00 0.00 0.00 0.00 0.00 0.00 0.00 0.00 0.00 0.00 0.00 0.00 0.00 0.00 0.00 0.00
0.04 0.08 0.13 0.10 0.05 0.00 0.00 0.00 0.00 0.00 0.01 0.01 0.00 0.00 0.00 0.00 0.00 0.00 0.00 0.00 0.00 0.00 0.00 0.00 0.00 0.00 0.00 0.00 0.00 0.00 0.00 0.00
0.02 0.00 0.00 0.00 0.00 0.00 0.00 0.00 0.00 0.00 0.00 0.00 0.00 0.00 0.00 0.00 0.00 0.00 0.00 0.00 0.00 0.00 0.00 0.00 0.00 0.00 0.00 0.00 0.00 0.00 0.00 0.00
0.00 0.00 0.00 0.00 0.00 0.00 0.00 0.00 0.00 0.00 0.00 0.00 0.00 0.00 0.00 0.00 0.00 0.00 0.00 0.00 0.00 0.00 0.00 0.00 0.00 0.00 0.00 0.00 0.00 0.00 0.00 0.00
0.00 0.00 0.00 0.00 0.00 0.00 0.00 0.00 0.00 0.00 0.00 0.00 0.00 0.00 0.00 0.00 0.00 0.00 0.00 0.00 0.01 0.00 0.00 0.00 0.00 0.00 0.00 0.00 0.00 0.00 0.00 0.00
0.01 0.00 0.00 0.00 0.00 0.00 0.00 0.00 0.00 0.00 0.00 0.00 0.00 0.00 0.00 0.00 0.00 0.00 0.00 0.00 0.00 0.00 0.00 0.00 0.00 0.00 0.00 0.00 0.01 0.01 0.00 0.01
0.00 0.00 0.00 0.00 0.00 0.00 0.00 0.00 0.00 0.00 0.00 0.00 0.00 0.00 0.00 0.00 0.00 0.00 0.00 0.00 0.00 0.00 0.00 0.00 0.00 0.00 0.00 0.01 0.03 0.02 0.02 0.04
0.00 0.00 0.00 0.00 0.00 0.00 0.00 0.00 0.00 0.00 0.00 0.00 0.00 0.00 0.00 0.00 0.00 0.00 0.00 0.00 0.00 0.00 0.00 0.00 0.00 0.00 0.00 0.00 0.01 0.04 0.05 0.08
0.00 0.00 0.00 0.00 0.00 0.00 0.00 0.00 0.00 0.00 0.00 0.00 0.00 0.00 0.00 0.00 0.00 0.00 0.00 0.00 0.00 0.00 0.00 0.00 0.00 0.00 0.01 0.01 0.03 0.04 0.04 0.03
0.00 0.00 0.00 0.00 0.00 0.00 0.00 0.00 0.00 0.00 0.00 0.00 0.00 0.00 0.00 0.00 0.00 0.00 0.00 0.00 0.00 0.00 0.00 0.01 0.01 0.03 0.08 0.10 0.06 0.04 0.03 0.03
0.00 0.00 0.00 0.00 0.00 0.00 0.00 0.00 0.00 0.00 0.00 0.00 0.00 0.00 0.00 0.00 0.00 0.00 0.00 0.01 0.01 0.02 0.01 0.03 0.05 0.07 0.07 0.05 0.03 0.01 0.01 0.01
0.00 0.00 0.00 0.00 0.00 0.00 0.00 0.00 0.00 0.00 0.00 0.00 0.00 0.00 0.00 0.00 0.00 0.01 0.01 0.02 0.02 0.02 0.03 0.05 0.04 0.03 0.02 0.01 0.00 0.00 0.00 0.00
0.00 0.00 0.00 0.00 0.00 0.00 0.00 0.00 0.00 0.00 0.00 0.00 0.00 0.01 0.01 0.01 0.00 0.02 0.02 0.03 0.02 0.00 0.01 0.01 0.00 0.00 0.00 0.00 0.00 0.00 0.00 0.00
0.00 0.00 0.00 0.00 0.00 0.00 0.00 0.00 0.00 0.00 0.00 0.00 0.00 0.00 0.01 0.02 0.02 0.03 0.06 0.02 0.01 0.00 0.00 0.00 0.00 0.00 0.00 0.00 0.00 0.00 0.00 0.00
0.00 0.00 0.00 0.00 0.00 0.00 0.00 0.00 0.00 0.00 0.01 0.01 0.00 0.01 0.02 0.03 0.04 0.05 0.01 0.01 0.01 0.00 0.00 0.00 0.00 0.00 0.00 0.00 0.00 0.00 0.00 0.00
0.00 0.00 0.00 0.00 0.00 0.00 0.00 0.00 0.00 0.00 0.00 0.01 0.01 0.02 0.02 0.02 0.02 0.03 0.03 0.03 0.01 0.00 0.00 0.00 0.00 0.00 0.00 0.00 0.00 0.00 0.00 0.00
0.00 0.00 0.00 0.00 0.00 0.00 0.00 0.00 0.00 0.00 0.00 0.01 0.03 0.02 0.01 0.02 0.05 0.04 0.02 0.00 0.00 0.00 0.00 0.00 0.00 0.00 0.00 0.00 0.00 0.00 0.00 0.00

GFSFLT1_prec_precacc_033.txt.gz
Total_Precipitation_Accumulation
0.00 0.02 0.04 0.05 0.04 0.30 0.54 0.60 0.78 1.07 0.64 0.20 0.07 0.05 0.02 0.01 0.02 0.02 0.01 0.00 0.00 0.00 0.00 0.00 0.00 0.00 0.00 0.00 0.00 0.00 0.00 0.00
0.02 0.05 0.06 0.08 0.16 0.38 0.62 0.94 0.85 0.30 0.09 0.05 0.04 0.02 0.02 0.03 0.02 0.00 0.00 0.00 0.00 0.00 0.00 0.00 0.00 0.00 0.00 0.00 0.00 0.00 0.00 0.00
0.01 0.04 0.10 0.28 0.43 0.42 0.30 0.11 0.02 0.01 0.01 0.02 0.03 0.02 0.01 0.00 0.00 0.00 0.00 0.00 0.00 0.00 0.00 0.00 0.00 0.00 0.00 0.00 0.00 0.00 0.00 0.00
0.04 0.08 0.13 0.10 0.05 0.01 0.03 0.02 0.01 0.00 0.01 0.01 0.00 0.00 0.00 0.00 0.00 0.00 0.00 0.00 0.00 0.00 0.00 0.00 0.00 0.00 0.00 0.00 0.00 0.00 0.00 0.00
0.02 0.00 0.00 0.00 0.00 0.00 0.00 0.00 0.00 0.00 0.00 0.00 0.00 0.00 0.00 0.00 0.00 0.00 0.00 0.00 0.00 0.00 0.00 0.00 0.00 0.00 0.00 0.00 0.00 0.00 0.00 0.00
0.00 0.00 0.00 0.00 0.00 0.00 0.00 0.00 0.00 0.00 0.00 0.00 0.00 0.00 0.00 0.00 0.00 0.00 0.00 0.00 0.00 0.00 0.00 0.00 0.00 0.00 0.00 0.00 0.00 0.00 0.00 0.00
0.00 0.00 0.00 0.00 0.00 0.00 0.00 0.00 0.00 0.00 0.00 0.00 0.00 0.00 0.00 0.00 0.00 0.00 0.00 0.00 0.01 0.00 0.00 0.00 0.00 0.00 0.00 0.00 0.00 0.00 0.00 0.00
0.01 0.00 0.00 0.00 0.00 0.00 0.00 0.00 0.00 0.00 0.00 0.00 0.00 0.00 0.00 0.00 0.00 0.00 0.00 0.00 0.00 0.00 0.00 0.00 0.00 0.00 0.00 0.00 0.01 0.01 0.01 0.02
0.00 0.00 0.00 0.00 0.00 0.00 0.00 0.00 0.00 0.00 0.00 0.00 0.00 0.00 0.00 0.00 0.00 0.00 0.00 0.00 0.00 0.00 0.00 0.00 0.00 0.00 0.00 0.01 0.03 0.03 0.04 0.06
0.00 0.00 0.00 0.00 0.00 0.00 0.00 0.00 0.00 0.00 0.00 0.00 0.00 0.00 0.00 0.00 0.00 0.00 0.00 0.00 0.00 0.00 0.00 0.00 0.00 0.00 0.00 0.00 0.02 0.04 0.07 0.10
0.00 0.00 0.00 0.00 0.00 0.00 0.00 0.00 0.00 0.00 0.00 0.00 0.00 0.00 0.00 0.00 0.00 0.00 0.00 0.00 0.00 0.00 0.00 0.00 0.00 0.00 0.01 0.01 0.03 0.06 0.08 0.06
0.00 0.00 0.00 0.00 0.00 0.00 0.00 0.00 0.00 0.00 0.00 0.00 0.00 0.00 0.00 0.00 0.00 0.00 0.00 0.00 0.00 0.00 0.00 0.01 0.01 0.03 0.08 0.10 0.08 0.06 0.04 0.03
0.00 0.00 0.00 0.00 0.00 0.00 0.00 0.00 0.00 0.00 0.00 0.00 0.00 0.00 0.00 0.00 0.00 0.00 0.00 0.01 0.01 0.02 0.01 0.03 0.05 0.07 0.07 0.07 0.04 0.01 0.01 0.01
0.00 0.00 0.00 0.00 0.00 0.00 0.00 0.00 0.00 0.00 0.00 0.00 0.00 0.00 0.00 0.00 0.00 0.01 0.01 0.02 0.02 0.02 0.03 0.05 0.04 0.03 0.02 0.01 0.00 0.00 0.00 0.00
0.00 0.00 0.00 0.00 0.00 0.00 0.00 0.00 0.00 0.00 0.00 0.00 0.00 0.01 0.01 0.01 0.00 0.02 0.02 0.03 0.02 0.00 0.01 0.01 0.00 0.00 0.00 0.00 0.00 0.00 0.00 0.00
0.00 0.00 0.00 0.00 0.00 0.00 0.00 0.00 0.00 0.00 0.00 0.00 0.00 0.00 0.01 0.02 0.02 0.03 0.06 0.02 0.01 0.00 0.00 0.00 0.00 0.00 0.00 0.00 0.00 0.00 0.00 0.00
0.00 0.00 0.00 0.00 0.00 0.00 0.00 0.00 0.00 0.00 0.01 0.01 0.00 0.01 0.02 0.03 0.04 0.05 0.01 0.01 0.01 0.00 0.00 0.00 0.00 0.00 0.00 0.00 0.00 0.00 0.00 0.00
0.00 0.00 0.00 0.00 0.00 0.00 0.00 0.00 0.00 0.00 0.00 0.01 0.01 0.02 0.02 0.02 0.02 0.03 0.03 0.03 0.01 0.00 0.00 0.00 0.00 0.00 0.00 0.00 0.00 0.00 0.00 0.00
0.00 0.00 0.00 0.00 0.00 0.00 0.00 0.00 0.00 0.00 0.00 0.01 0.03 0.02 0.01 0.02 0.05 0.04 0.02 0.00 0.00 0.00 0.00 0.00 0.00 0.00 0.00 0.00 0.00 0.00 0.00 0.00

GFSFLT1_prec_precacc_036.txt.gz
Total_Precipitation_Accumulation
0.00 0.02 0.04 0.05 0.04 0.30 0.54 0.60 0.83 1.13 0.66 0.20 0.07 0.05 0.02 0.01 0.02 0.02 0.01 0.00 0.00 0.00 0.00 0.00 0.00 0.00 0.00 0.00 0.00 0.00 0.00 0.00
0.02 0.05 0.06 0.08 0.16 0.38 0.62 0.95 0.86 0.31 0.09 0.06 0.04 0.02 0.02 0.03 0.02 0.00 0.00 0.00 0.00 0.00 0.00 0.00 0.00 0.00 0.00 0.00 0.00 0.00 0.00 0.00
0.01 0.04 0.10 0.28 0.43 0.42 0.31 0.14 0.03 0.01 0.01 0.02 0.03 0.02 0.01 0.00 0.00 0.00 0.00 0.00 0.00 0.00 0.00 0.00 0.00 0.00 0.00 0.00 0.00 0.00 0.00 0.00
0.04 0.08 0.13 0.10 0.05 0.01 0.04 0.05 0.02 0.00 0.01 0.01 0.00 0.00 0.00 0.00 0.00 0.00 0.00 0.00 0.00 0.00 0.00 0.00 0.00 0.00 0.00 0.00 0.00 0.00 0.00 0.00
0.02 0.00 0.00 0.01 0.02 0.02 0.02 0.03 0.00 0.00 0.00 0.00 0.00 0.00 0.00 0.00 0.00 0.00 0.00 0.00 0.00 0.00 0.00 0.00 0.00 0.00 0.00 0.00 0.00 0.00 0.00 0.00
0.00 0.00 0.00 0.00 0.01 0.03 0.01 0.00 0.04 0.01 0.00 0.00 0.00 0.00 0.00 0.00 0.00 0.00 0.00 0.00 0.00 0.00 0.00 0.00 0.00 0.00 0.00 0.00 0.00 0.00 0.00 0.00
0.00 0.00 0.00 0.00 0.00 0.00 0.02 0.04 0.02 0.00 0.00 0.00 0.00 0.00 0.00 0.00 0.00 0.00 0.00 0.00 0.01 0.00 0.00 0.00 0.00 0.00 0.00 0.00 0.00 0.00 0.00 0.00
0.01 0.00 0.00 0.00 0.00 0.00 0.00 0.00 0.00 0.00 0.00 0.00 0.00 0.00 0.00 0.00 0.00 0.00 0.00 0.00 0.00 0.00 0.00 0.00 0.00 0.00 0.00 0.00 0.01 0.01 0.01 0.03
0.00 0.00 0.00 0.00 0.00 0.00 0.00 0.00 0.00 0.00 0.00 0.00 0.00 0.00 0.00 0.00 0.00 0.00 0.00 0.00 0.00 0.00 0.00 0.00 0.00 0.00 0.00 0.01 0.03 0.03 0.04 0.07
0.00 0.00 0.00 0.00 0.00 0.00 0.00 0.00 0.00 0.00 0.00 0.00 0.00 0.00 0.00 0.00 0.00 0.00 0.00 0.00 0.00 0.00 0.00 0.00 0.00 0.00 0.00 0.00 0.02 0.04 0.07 0.11
0.00 0.00 0.00 0.00 0.00 0.00 0.00 0.00 0.00 0.00 0.00 0.00 0.00 0.00 0.00 0.00 0.00 0.00 0.00 0.00 0.00 0.00 0.00 0.00 0.00 0.00 0.01 0.01 0.03 0.06 0.08 0.07
0.00 0.00 0.00 0.00 0.00 0.00 0.00 0.00 0.00 0.00 0.00 0.00 0.00 0.00 0.00 0.00 0.00 0.00 0.00 0.00 0.00 0.00 0.00 0.01 0.01 0.03 0.08 0.10 0.08 0.06 0.05 0.04
0.00 0.00 0.00 0.00 0.00 0.00 0.00 0.00 0.00 0.00 0.00 0.00 0.00 0.00 0.00 0.00 0.00 0.00 0.00 0.01 0.01 0.02 0.01 0.03 0.05 0.07 0.07 0.07 0.04 0.02 0.01 0.01
0.00 0.00 0.00 0.00 0.00 0.00 0.00 0.00 0.00 0.00 0.00 0.00 0.00 0.00 0.00 0.00 0.00 0.01 0.01 0.02 0.02 0.02 0.03 0.05 0.04 0.03 0.02 0.01 0.00 0.00 0.00 0.00
0.00 0.00 0.00 0.00 0.00 0.00 0.00 0.00 0.00 0.00 0.00 0.00 0.00 0.01 0.01 0.01 0.00 0.02 0.02 0.03 0.02 0.00 0.01 0.01 0.00 0.00 0.00 0.00 0.00 0.00 0.00 0.00
0.00 0.00 0.00 0.00 0.00 0.00 0.00 0.00 0.00 0.00 0.00 0.00 0.00 0.00 0.01 0.02 0.02 0.03 0.06 0.02 0.01 0.00 0.00 0.00 0.00 0.00 0.00 0.00 0.00 0.00 0.00 0.00
0.00 0.00 0.00 0.00 0.00 0.00 0.00 0.00 0.00 0.00 0.01 0.01 0.00 0.01 0.02 0.03 0.04 0.05 0.01 0.01 0.01 0.00 0.00 0.00 0.00 0.00 0.00 0.00 0.00 0.00 0.00 0.00
0.00 0.00 0.00 0.00 0.00 0.00 0.00 0.00 0.00 0.00 0.00 0.01 0.01 0.02 0.02 0.02 0.02 0.03 0.03 0.03 0.01 0.00 0.00 0.00 0.00 0.00 0.00 0.00 0.00 0.00 0.00 0.00
0.00 0.00 0.00 0.00 0.00 0.00 0.00 0.00 0.00 0.00 0.00 0.01 0.03 0.02 0.01 0.02 0.05 0.04 0.02 0.00 0.00 0.00 0.00 0.00 0.00 0.00 0.00 0.00 0.00 0.00 0.00 0.00

GFSFLT1_prec_precacc_042.txt.gz
Total_Precipitation_Accumulation
0.00 0.02 0.04 0.06 0.08 0.31 0.54 0.61 0.93 1.15 0.67 0.22 0.08 0.05 0.02 0.01 0.02 0.02 0.01 0.00 0.00 0.00 0.00 0.00 0.00 0.00 0.00 0.00 0.00 0.00 0.00 0.00
0.02 0.05 0.06 0.08 0.18 0.41 0.62 0.96 0.92 0.32 0.10 0.07 0.04 0.02 0.02 0.03 0.02 0.00 0.00 0.00 0.00 0.00 0.00 0.00 0.00 0.00 0.00 0.00 0.00 0.00 0.00 0.00
0.01 0.04 0.10 0.28 0.44 0.43 0.31 0.14 0.12 0.02 0.01 0.03 0.03 0.02 0.01 0.00 0.00 0.00 0.00 0.00 0.00 0.00 0.00 0.00 0.00 0.00 0.00 0.00 0.00 0.00 0.00 0.00
0.04 0.08 0.13 0.10 0.05 0.02 0.05 0.07 0.13 0.04 0.01 0.01 0.00 0.00 0.00 0.00 0.00 0.00 0.00 0.00 0.00 0.00 0.00 0.00 0.00 0.00 0.00 0.00 0.00 0.00 0.00 0.00
0.03 0.00 0.00 0.01 0.02 0.03 0.06 0.10 0.14 0.04 0.01 0.00 0.00 0.00 0.00 0.00 0.00 0.00 0.00 0.00 0.00 0.00 0.00 0.00 0.00 0.00 0.00 0.00 0.00 0.00 0.00 0.00
0.00 0.01 0.00 0.00 0.03 0.07 0.08 0.06 0.09 0.05 0.00 0.00 0.00 0.00 0.00 0.00 0.00 0.00 0.00 0.00 0.00 0.00 0.00 0.00 0.00 0.00 0.00 0.00 0.00 0.00 0.00 0.00
0.01 0.00 0.00 0.00 0.04 0.06 0.06 0.07 0.05 0.01 0.00 0.00 0.00 0.00 0.00 0.00 0.00 0.00 0.00 0.00 0.01 0.00 0.00 0.00 0.00 0.00 0.00 0.00 0.00 0.00 0.00 0.00
0.01 0.01 0.01 0.00 0.01 0.04 0.03 0.01 0.00 0.00 0.00 0.00 0.00 0.00 0.00 0.00 0.00 0.00 0.00 0.00 0.00 0.00 0.00 0.00 0.00 0.00 0.00 0.00 0.01 0.01 0.01 0.03
0.00 0.00 0.02 0.01 0.02 0.05 0.01 0.01 0.00 0.00 0.00 0.00 0.00 0.00 0.00 0.00 0.00 0.00 0.00 0.00 0.00 0.00 0.00 0.00 0.00 0.00 0.00 0.01 0.03 0.03 0.04 0.07
0.00 0.00 0.02 0.02 0.00 0.01 0.01 0.01 0.00 0.02 0.02 0.01 0.00 0.00 0.00 0.00 0.00 0.00 0.00 0.00 0.00 0.00 0.00 0.00 0.00 0.00 0.00 0.00 0.02 0.04 0.07 0.11
0.00 0.00 0.00 0.00 0.00 0.00 0.00 0.00 0.02 0.02 0.01 0.01 0.01 0.01 0.00 0.01 0.01 0.00 0.00 0.00 0.00 0.00 0.00 0.00 0.00 0.00 0.01 0.01 0.03 0.06 0.08 0.07
0.00 0.00 0.00 0.00 0.00 0.00 0.00 0.00 0.01 0.00 0.00 0.00 0.01 0.01 0.00 0.00 0.00 0.00 0.00 0.00 0.00 0.01 0.01 0.01 0.01 0.03 0.08 0.10 0.08 0.06 0.05 0.04
0.00 0.00 0.00 0.00 0.00 0.00 0.00 0.00 0.00 0.00 0.00 0.00 0.00 0.00 0.00 0.00 0.00 0.00 0.00 0.01 0.01 0.02 0.01 0.03 0.05 0.07 0.07 0.07 0.04 0.02 0.01 0.01
0.00 0.00 0.00 0.00 0.00 0.00 0.00 0.00 0.00 0.00 0.00 0.00 0.00 0.00 0.00 0.00 0.01 0.01 0.01 0.02 0.02 0.02 0.03 0.05 0.04 0.03 0.02 0.01 0.00 0.00 0.00 0.00
0.00 0.00 0.00 0.00 0.00 0.00 0.00 0.01 0.01 0.01 0.00 0.00 0.01 0.01 0.01 0.01 0.00 0.02 0.02 0.03 0.02 0.00 0.01 0.01 0.00 0.00 0.00 0.00 0.00 0.00 0.00 0.00
0.00 0.01 0.02 0.01 0.01 0.02 0.02 0.02 0.02 0.02 0.01 0.01 0.01 0.00 0.01 0.02 0.02 0.03 0.06 0.02 0.01 0.00 0.00 0.00 0.00 0.00 0.00 0.00 0.00 0.00 0.00 0.00
0.00 0.01 0.02 0.02 0.04 0.04 0.02 0.02 0.02 0.01 0.01 0.01 0.01 0.01 0.02 0.03 0.04 0.05 0.01 0.01 0.01 0.00 0.00 0.00 0.00 0.00 0.00 0.00 0.00 0.00 0.00 0.00
0.00 0.00 0.00 0.00 0.01 0.03 0.03 0.02 0.01 0.01 0.00 0.01 0.01 0.02 0.02 0.02 0.02 0.03 0.03 0.03 0.01 0.00 0.00 0.00 0.00 0.00 0.00 0.00 0.00 0.00 0.00 0.00
0.00 0.00 0.00 0.00 0.00 0.01 0.01 0.01 0.00 0.00 0.00 0.01 0.03 0.02 0.01 0.03 0.06 0.05 0.03 0.00 0.00 0.00 0.00 0.00 0.00 0.00 0.00 0.00 0.00 0.00 0.00 0.00

GFSFLT1_prec_precacc_045.txt.gz
Total_Precipitation_Accumulation
0.00 0.02 0.04 0.06 0.08 0.31 0.54 0.61 0.93 1.15 0.67 0.22 0.08 0.08 0.03 0.01 0.02 0.02 0.01 0.00 0.00 0.00 0.00 0.00 0.00 0.00 0.00 0.00 0.00 0.00 0.00 0.00
0.02 0.05 0.06 0.08 0.18 0.41 0.62 0.96 0.92 0.32 0.10 0.07 0.05 0.02 0.02 0.03 0.02 0.00 0.00 0.00 0.00 0.00 0.00 0.00 0.00 0.00 0.00 0.00 0.00 0.00 0.00 0.00
0.01 0.04 0.10 0.28 0.44 0.44 0.31 0.14 0.12 0.02 0.02 0.04 0.03 0.02 0.01 0.00 0.00 0.00 0.00 0.00 0.00 0.00 0.00 0.00 0.00 0.00 0.00 0.00 0.00 0.00 0.00 0.00
0.04 0.08 0.13 0.10 0.05 0.02 0.06 0.08 0.13 0.04 0.02 0.01 0.00 0.00 0.00 0.00 0.00 0.00 0.00 0.00 0.00 0.00 0.00 0.00 0.00 0.00 0.00 0.00 0.00 0.00 0.00 0.00
0.03 0.00 0.00 0.01 0.02 0.03 0.06 0.11 0.14 0.04 0.01 0.00 0.00 0.01 0.03 0.01 0.00 0.00 0.00 0.00 0.00 0.00 0.00 0.00 0.00 0.00 0.00 0.00 0.00 0.00 0.00 0.00
0.00 0.01 0.00 0.00 0.04 0.07 0.08 0.09 0.14 0.08 0.01 0.05 0.06 0.04 0.01 0.00 0.00 0.00 0.00 0.00 0.00 0.00 0.00 0.00 0.00 0.00 0.00 0.00 0.00 0.00 0.00 0.00
0.02 0.02 0.01 0.01 0.05 0.07 0.09 0.12 0.13 0.03 0.02 0.02 0.06 0.03 0.01 0.01 0.00 0.00 0.00 0.00 0.01 0.00 0.00 0.00 0.00 0.00 0.00 0.00 0.00 0.00 0.00 0.00
0.03 0.02 0.01 0.02 0.04 0.08 0.07 0.06 0.06 0.02 0.01 0.01 0.02 0.02 0.01 0.01 0.00 0.00 0.00 0.00 0.00 0.00 0.00 0.00 0.00 0.00 0.00 0.00 0.01 0.01 0.01 0.03
0.01 0.01 0.02 0.02 0.05 0.14 0.11 0.09 0.06 0.02 0.01 0.01 0.02 0.01 0.00 0.00 0.00 0.00 0.00 0.00 0.00 0.00 0.00 0.01 0.01 0.00 0.00 0.01 0.03 0.03 0.04 0.07
0.00 0.00 0.02 0.02 0.02 0.10 0.13 0.09 0.07 0.05 0.04 0.04 0.06 0.06 0.03 0.01 0.01 0.01 0.01 0.00 0.01 0.02 0.02 0.01 0.00 0.00 0.00 0.00 0.02 0.04 0.07 0.11
0.00 0.00 0.00 0.01 0.01 0.03 0.03 0.03 0.05 0.05 0.03 0.03 0.03 0.04 0.02 0.02 0.02 0.02 0.00 0.01 0.02 0.02 0.01 0.01 0.01 0.00 0.01 0.01 0.03 0.06 0.08 0.07
0.00 0.00 0.00 0.00 0.00 0.00 0.00 0.01 0.02 0.01 0.01 0.03 0.03 0.03 0.02 0.02 0.02 0.01 0.00 0.00 0.01 0.02 0.02 0.01 0.01 0.03 0.08 0.10 0.08 0.06 0.05 0.04
0.00 0.00 0.00 0.00 0.00 0.00 0.00 0.01 0.02 0.02 0.02 0.03 0.03 0.01 0.00 0.00 0.00 0.00 0.01 0.02 0.02 0.02 0.01 0.03 0.05 0.07 0.07 0.07 0.04 0.02 0.01 0.01
0.00 0.00 0.00 0.00 0.00 0.01 0.02 0.02 0.03 0.03 0.03 0.03 0.03 0.02 0.02 0.02 0.02 0.02 0.02 0.02 0.02 0.02 0.03 0.05 0.04 0.03 0.02 0.01 0.00 0.00 0.00 0.00
0.00 0.00 0.00 0.00 0.01 0.04 0.03 0.04 0.06 0.04 0.03 0.03 0.03 0.02 0.02 0.02 0.01 0.02 0.02 0.03 0.02 0.00 0.01 0.01 0.00 0.00 0.00 0.00 0.00 0.00 0.00 0.00
0.01 0.01 0.02 0.02 0.03 0.05 0.06 0.07 0.05 0.04 0.05 0.04 0.02 0.01 0.01 0.02 0.02 0.03 0.06 0.02 0.01 0.00 0.00 0.00 0.00 0.00 0.00 0.00 0.00 0.00 0.00 0.00
0.00 0.01 0.03 0.03 0.05 0.05 0.05 0.03 0.04 0.05 0.04 0.03 0.02 0.02 0.03 0.03 0.04 0.05 0.01 0.01 0.01 0.02 0.01 0.00 0.00 0.00 0.00 0.00 0.00 0.00 0.00 0.00
0.00 0.00 0.00 0.00 0.01 0.03 0.03 0.02 0.02 0.03 0.01 0.02 0.02 0.02 0.02 0.02 0.02 0.03 0.04 0.09 0.05 0.01 0.00 0.00 0.00 0.00 0.00 0.00 0.00 0.00 0.00 0.00
0.00 0.00 0.00 0.00 0.00 0.01 0.01 0.02 0.01 0.01 0.00 0.01 0.03 0.02 0.01 0.03 0.08 0.13 0.12 0.04 0.00 0.00 0.00 0.00 0.00 0.00 0.00 0.00 0.00 0.00 0.00 0.00

GFSFLT1_prec_precacc_048.txt.gz
Total_Precipitation_Accumulation
0.00 0.02 0.04 0.06 0.08 0.31 0.54 0.61 0.93 1.15 0.67 0.22 0.08 0.09 0.08 0.08 0.04 0.02 0.01 0.00 0.00 0.00 0.00 0.00 0.00 0.00 0.00 0.00 0.00 0.00 0.00 0.00
0.02 0.05 0.06 0.08 0.18 0.41 0.62 0.96 0.92 0.32 0.10 0.07 0.05 0.06 0.12 0.12 0.04 0.00 0.00 0.00 0.00 0.00 0.00 0.00 0.00 0.00 0.00 0.00 0.00 0.00 0.00 0.00
0.01 0.04 0.10 0.28 0.44 0.44 0.31 0.14 0.12 0.02 0.02 0.05 0.05 0.06 0.09 0.08 0.01 0.00 0.00 0.00 0.00 0.00 0.00 0.00 0.00 0.00 0.00 0.00 0.00 0.00 0.00 0.00
0.04 0.08 0.13 0.10 0.05 0.02 0.06 0.08 0.13 0.04 0.02 0.01 0.01 0.05 0.08 0.04 0.01 0.00 0.00 0.00 0.00 0.00 0.00 0.00 0.00 0.00 0.00 0.00 0.00 0.00 0.00 0.00
0.03 0.00 0.00 0.01 0.02 0.03 0.06 0.11 0.14 0.04 0.01 0.00 0.01 0.05 0.07 0.05 0.01 0.00 0.00 0.00 0.00 0.00 0.00 0.00 0.00 0.00 0.00 0.00 0.00 0.00 0.00 0.00
0.00 0.01 0.00 0.00 0.04 0.07 0.08 0.11 0.15 0.08 0.01 0.06 0.12 0.13 0.11 0.04 0.01 0.01 0.00 0.00 0.00 0.00 0.00 0.00 0.00 0.00 0.00 0.00 0.00 0.00 0.00 0.00
0.02 0.02 0.01 0.01 0.05 0.08 0.10 0.12 0.19 0.09 0.02 0.03 0.11 0.15 0.09 0.05 0.02 0.00 0.00 0.00 0.01 0.00 0.00 0.00 0.00 0.00 0.00 0.00 0.01 0.00 0.00 0.00
0.03 0.02 0.01 0.02 0.04 0.08 0.08 0.07 0.09 0.08 0.06 0.01 0.02 0.09 0.10 0.06 0.02 0.00 0.00 0.00 0.00 0.00 0.00 0.00 0.00 0.01 0.03 0.02 0.01 0.01 0.01 0.03
0.01 0.01 0.02 0.02 0.07 0.18 0.12 0.11 0.11 0.06 0.06 0.05 0.06 0.10 0.10 0.07 0.04 0.00 0.00 0.00 0.00 0.01 0.01 0.03 0.04 0.03 0.01 0.02 0.03 0.03 0.04 0.07
0.00 0.00 0.02 0.02 0.02 0.15 0.20 0.13 0.10 0.07 0.06 0.10 0.15 0.18 0.17 0.14 0.08 0.03 0.02 0.01 0.01 0.08 0.12 0.05 0.01 0.01 0.01 0.00 0.02 0.04 0.07 0.11
0.00 0.00 0.00 0.01 0.01 0.05 0.06 0.05 0.07 0.06 0.04 0.07 0.11 0.14 0.13 0.11 0.10 0.07 0.04 0.03 0.05 0.05 0.01 0.02 0.02 0.01 0.01 0.01 0.03 0.06 0.08 0.07
0.00 0.00 0.00 0.00 0.00 0.01 0.00 0.02 0.02 0.02 0.03 0.09 0.08 0.10 0.10 0.09 0.09 0.06 0.03 0.01 0.01 0.02 0.03 0.02 0.02 0.03 0.08 0.10 0.08 0.06 0.05 0.04
0.00 0.00 0.00 0.00 0.00 0.00 0.00 0.02 0.06 0.08 0.09 0.11 0.14 0.12 0.09 0.06 0.04 0.03 0.03 0.02 0.02 0.04 0.04 0.03 0.05 0.07 0.07 0.07 0.04 0.02 0.01 0.01
0.00 0.00 0.00 0.00 0.00 0.01 0.04 0.07 0.10 0.11 0.13 0.12 0.11 0.08 0.06 0.03 0.03 0.03 0.02 0.02 0.02 0.02 0.03 0.05 0.04 0.03 0.02 0.01 0.00 0.00 0.00 0.00
0.00 0.00 0.00 0.00 0.02 0.08 0.08 0.08 0.12 0.14 0.12 0.11 0.08 0.06 0.04 0.03 0.02 0.02 0.02 0.03 0.02 0.01 0.01 0.01 0.02 0.01 0.00 0.00 0.00 0.00 0.00 0.00
0.01 0.01 0.03 0.03 0.06 0.08 0.09 0.11 0.10 0.09 0.09 0.08 0.06 0.03 0.02 0.02 0.02 0.03 0.06 0.02 0.01 0.00 0.02 0.04 0.02 0.00 0.00 0.00 0.00 0.00 0.00 0.00
0.00 0.01 0.03 0.04 0.05 0.06 0.06 0.04 0.05 0.06 0.06 0.05 0.03 0.02 0.03 0.03 0.04 0.05 0.01 0.01 0.02 0.06 0.07 0.03 0.01 0.00 0.00 0.00 0.00 0.00 0.00 0.00
0.00 0.00 0.00 0.00 0.01 0.03 0.03 0.02 0.02 0.03 0.02 0.02 0.02 0.02 0.02 0.02 0.02 0.03 0.05 0.11 0.12 0.07 0.02 0.00 0.00 0.00 0.00 0.00 0.00 0.00 0.00 0.00
0.00 0.00 0.00 0.00 0.00 0.01 0.01 0.02 0.01 0.01 0.00 0.01 0.03 0.02 0.01 0.03 0.09 0.14 0.16 0.12 0.06 0.01 0.00 0.00 0.00 0.00 0.00 0.00 0.00 0.00 0.00 0.00

GFSFLT1_prec_precacc_051.txt.gz
Total_Precipitation_Accumulation
0.00 0.03 0.04 0.06 0.08 0.31 0.54 0.61 0.93 1.15 0.67 0.22 0.08 0.09 0.08 0.13 0.11 0.07 0.04 0.01 0.01 0.00 0.00 0.00 0.00 0.00 0.00 0.00 0.00 0.00 0.00 0.00
0.02 0.05 0.06 0.08 0.18 0.41 0.62 0.96 0.92 0.32 0.10 0.07 0.05 0.06 0.13 0.21 0.17 0.09 0.03 0.00 0.00 0.00 0.00 0.00 0.00 0.00 0.00 0.00 0.00 0.00 0.00 0.00
0.01 0.04 0.10 0.28 0.44 0.44 0.31 0.14 0.12 0.02 0.02 0.05 0.05 0.06 0.11 0.18 0.13 0.07 0.05 0.00 0.00 0.00 0.00 0.00 0.00 0.00 0.00 0.00 0.00 0.00 0.00 0.00
0.04 0.08 0.13 0.10 0.05 0.02 0.06 0.08 0.13 0.04 0.02 0.01 0.01 0.06 0.12 0.09 0.11 0.06 0.02 0.00 0.00 0.00 0.00 0.00 0.00 0.00 0.00 0.00 0.00 0.00 0.00 0.00
0.03 0.00 0.00 0.01 0.02 0.03 0.06 0.11 0.14 0.04 0.01 0.00 0.01 0.05 0.08 0.15 0.12 0.04 0.00 0.00 0.00 0.00 0.00 0.00 0.00 0.00 0.00 0.00 0.00 0.00 0.00 0.00
0.00 0.01 0.00 0.00 0.04 0.07 0.08 0.11 0.15 0.08 0.01 0.06 0.12 0.14 0.15 0.15 0.10 0.05 0.01 0.00 0.00 0.00 0.00 0.00 0.00 0.00 0.00 0.00 0.00 0.00 0.00 0.00
0.02 0.02 0.01 0.01 0.05 0.08 0.10 0.12 0.19 0.09 0.06 0.05 0.12 0.16 0.13 0.08 0.07 0.04 0.01 0.01 0.01 0.00 0.00 0.00 0.00 0.00 0.00 0.01 0.04 0.02 0.00 0.00
0.03 0.02 0.01 0.02 0.04 0.08 0.08 0.07 0.09 0.08 0.10 0.05 0.04 0.11 0.13 0.12 0.08 0.04 0.02 0.01 0.01 0.00 0.00 0.00 0.00 0.02 0.05 0.04 0.02 0.02 0.01 0.03
0.01 0.01 0.02 0.02 0.07 0.18 0.12 0.11 0.11 0.07 0.09 0.12 0.12 0.13 0.14 0.17 0.18 0.09 0.03 0.02 0.01 0.01 0.02 0.05 0.06 0.03 0.01 0.02 0.03 0.03 0.04 0.07
0.00 0.00 0.02 0.02 0.02 0.15 0.20 0.13 0.10 0.07 0.07 0.11 0.18 0.24 0.27 0.27 0.22 0.16 0.11 0.04 0.02 0.08 0.14 0.06 0.01 0.01 0.01 0.01 0.02 0.04 0.07 0.11
0.00 0.00 0.00 0.01 0.01 0.05 0.06 0.05 0.08 0.07 0.04 0.08 0.14 0.19 0.23 0.24 0.23 0.19 0.12 0.08 0.07 0.06 0.02 0.02 0.03 0.02 0.01 0.01 0.03 0.06 0.08 0.07
0.00 0.00 0.00 0.00 0.00 0.01 0.00 0.02 0.03 0.02 0.06 0.15 0.15 0.16 0.19 0.20 0.20 0.15 0.09 0.05 0.03 0.03 0.04 0.04 0.06 0.09 0.11 0.10 0.09 0.07 0.05 0.04
0.00 0.00 0.00 0.00 0.00 0.00 0.00 0.02 0.07 0.13 0.16 0.20 0.24 0.25 0.22 0.17 0.12 0.08 0.06 0.04 0.04 0.04 0.05 0.05 0.06 0.07 0.08 0.08 0.05 0.02 0.01 0.01
0.00 0.00 0.00 0.00 0.00 0.01 0.04 0.09 0.13 0.15 0.15 0.19 0.23 0.17 0.14 0.11 0.07 0.04 0.03 0.02 0.02 0.02 0.03 0.06 0.07 0.05 0.04 0.02 0.00 0.00 0.00 0.00
0.00 0.00 0.00 0.00 0.03 0.09 0.10 0.10 0.13 0.16 0.15 0.15 0.14 0.15 0.11 0.06 0.03 0.02 0.02 0.03 0.03 0.02 0.02 0.02 0.03 0.02 0.00 0.00 0.00 0.00 0.00 0.00
0.01 0.01 0.03 0.04 0.07 0.09 0.10 0.11 0.10 0.11 0.11 0.10 0.08 0.05 0.03 0.03 0.02 0.03 0.06 0.03 0.01 0.01 0.02 0.05 0.03 0.01 0.00 0.00 0.00 0.00 0.00 0.00
0.00 0.01 0.03 0.04 0.05 0.06 0.06 0.04 0.05 0.06 0.06 0.05 0.03 0.02 0.03 0.03 0.04 0.05 0.01 0.01 0.03 0.08 0.09 0.05 0.03 0.01 0.00 0.00 0.00 0.00 0.00 0.00
0.00 0.00 0.00 0.00 0.01 0.03 0.03 0.02 0.02 0.03 0.02 0.02 0.02 0.02 0.02 0.02 0.02 0.03 0.05 0.13 0.15 0.13 0.12 0.08 0.03 0.01 0.00 0.00 0.00 0.00 0.00 0.00
0.00 0.00 0.00 0.00 0.00 0.01 0.01 0.02 0.01 0.01 0.00 0.01 0.03 0.02 0.01 0.03 0.09 0.15 0.19 0.18 0.16 0.10 0.03 0.00 0.00 0.00 0.00 0.00 0.00 0.00 0.00 0.00

GFSFLT1_prec_precacc_054.txt.gz
Total_Precipitation_Accumulation
0.00 0.03 0.04 0.06 0.08 0.31 0.54 0.61 0.93 1.15 0.67 0.22 0.08 0.09 0.08 0.13 0.11 0.10 0.07 0.04 0.04 0.01 0.01 0.00 0.00 0.00 0.00 0.00 0.00 0.00 0.00 0.00
0.02 0.05 0.06 0.08 0.18 0.41 0.62 0.96 0.92 0.32 0.10 0.07 0.05 0.06 0.13 0.21 0.17 0.14 0.12 0.03 0.02 0.00 0.00 0.00 0.00 0.00 0.00 0.00 0.00 0.00 0.00 0.00
0.01 0.04 0.10 0.28 0.44 0.44 0.31 0.14 0.12 0.02 0.02 0.05 0.05 0.06 0.11 0.18 0.14 0.11 0.17 0.10 0.02 0.00 0.00 0.00 0.00 0.00 0.00 0.00 0.00 0.00 0.00 0.00
0.04 0.08 0.13 0.10 0.05 0.02 0.06 0.08 0.13 0.04 0.02 0.01 0.01 0.06 0.12 0.10 0.17 0.17 0.15 0.09 0.04 0.00 0.00 0.00 0.00 0.00 0.00 0.00 0.00 0.00 0.00 0.00
0.03 0.00 0.00 0.01 0.02 0.03 0.06 0.11 0.14 0.04 0.01 0.00 0.01 0.06 0.08 0.16 0.17 0.13 0.09 0.04 0.02 0.00 0.00 0.00 0.00 0.00 0.00 0.00 0.00 0.00 0.00 0.00
0.00 0.01 0.00 0.00 0.04 0.07 0.08 0.11 0.15 0.08 0.01 0.06 0.12 0.14 0.15 0.16 0.13 0.10 0.07 0.05 0.02 0.00 0.00 0.00 0.00 0.00 0.00 0.00 0.00 0.00 0.01 0.00
0.02 0.02 0.01 0.01 0.05 0.08 0.10 0.12 0.19 0.09 0.06 0.07 0.13 0.17 0.13 0.09 0.07 0.06 0.05 0.05 0.03 0.01 0.00 0.00 0.00 0.00 0.00 0.01 0.04 0.03 0.01 0.00
0.03 0.02 0.01 0.02 0.04 0.08 0.08 0.07 0.09 0.09 0.12 0.06 0.04 0.12 0.15 0.12 0.09 0.06 0.06 0.05 0.03 0.02 0.01 0.00 0.00 0.02 0.05 0.04 0.02 0.02 0.01 0.03
0.01 0.01 0.02 0.02 0.07 0.18 0.12 0.11 0.11 0.07 0.11 0.16 0.18 0.16 0.17 0.18 0.19 0.13 0.08 0.08 0.10 0.05 0.02 0.06 0.06 0.04 0.01 0.02 0.03 0.03 0.05 0.07
0.00 0.00 0.02 0.02 0.02 0.15 0.20 0.13 0.12 0.08 0.10 0.16 0.21 0.30 0.33 0.29 0.25 0.20 0.16 0.10 0.08 0.13 0.17 0.09 0.02 0.01 0.02 0.02 0.04 0.06 0.08 0.11
0.00 0.00 0.00 0.01 0.01 0.05 0.06 0.05 0.10 0.10 0.07 0.09 0.15 0.21 0.26 0.26 0.26 0.24 0.18 0.14 0.11 0.11 0.12 0.09 0.04 0.04 0.05 0.06 0.07 0.07 0.10 0.09
0.00 0.00 0.00 0.00 0.00 0.01 0.00 0.02 0.03 0.02 0.06 0.15 0.16 0.19 0.23 0.24 0.25 0.21 0.15 0.09 0.06 0.06 0.05 0.05 0.07 0.11 0.16 0.15 0.10 0.09 0.07 0.04
0.00 0.00 0.00 0.00 0.00 0.00 0.00 0.02 0.07 0.13 0.16 0.20 0.25 0.27 0.27 0.22 0.17 0.13 0.09 0.06 0.04 0.05 0.06 0.06 0.08 0.10 0.10 0.11 0.09 0.04 0.01 0.01
0.00 0.00 0.00 0.00 0.00 0.01 0.04 0.09 0.13 0.15 0.15 0.19 0.23 0.19 0.18 0.16 0.11 0.07 0.04 0.02 0.02 0.03 0.04 0.07 0.08 0.08 0.11 0.09 0.04 0.01 0.00 0.00
0.00 0.00 0.00 0.00 0.03 0.09 0.10 0.10 0.13 0.16 0.15 0.15 0.15 0.16 0.13 0.08 0.04 0.03 0.03 0.04 0.03 0.02 0.03 0.03 0.04 0.06 0.05 0.03 0.01 0.00 0.00 0.00
0.01 0.01 0.03 0.04 0.07 0.10 0.11 0.12 0.11 0.12 0.14 0.11 0.09 0.05 0.03 0.03 0.02 0.03 0.06 0.03 0.02 0.01 0.03 0.07 0.06 0.03 0.02 0.00 0.00 0.00 0.00 0.00
0.00 0.01 0.03 0.04 0.06 0.07 0.07 0.05 0.06 0.06 0.06 0.05 0.03 0.02 0.03 0.03 0.04 0.05 0.02 0.01 0.03 0.08 0.10 0.07 0.06 0.03 0.02 0.00 0.00 0.00 0.00 0.00
0.00 0.00 0.00 0.00 0.01 0.03 0.03 0.02 0.02 0.03 0.02 0.02 0.02 0.02 0.02 0.02 0.02 0.03 0.06 0.13 0.16 0.15 0.15 0.10 0.04 0.01 0.00 0.00 0.00 0.00 0.00 0.00
0.00 0.00 0.00 0.00 0.00 0.01 0.01 0.02 0.01 0.01 0.00 0.01 0.03 0.02 0.01 0.03 0.09 0.16 0.22 0.19 0.17 0.11 0.03 0.01 0.01 0.00 0.00 0.00 0.00 0.00 0.00 0.00

GFSFLT1_prec_precacc_060.txt.gz
Total_Precipitation_Accumulation
0.00 0.03 0.04 0.06 0.08 0.31 0.54 0.61 0.93 1.16 0.71 0.24 0.09 0.12 0.08 0.13 0.11 0.10 0.09 0.06 0.08 0.02 0.01 0.01 0.00 0.00 0.00 0.00 0.00 0.00 0.00 0.00
0.02 0.05 0.06 0.08 0.18 0.41 0.62 0.96 0.92 0.32 0.11 0.07 0.05 0.06 0.13 0.21 0.17 0.15 0.14 0.07 0.13 0.11 0.07 0.10 0.01 0.00 0.00 0.00 0.00 0.00 0.00 0.00
0.01 0.04 0.10 0.28 0.44 0.44 0.31 0.14 0.12 0.02 0.02 0.05 0.05 0.06 0.11 0.18 0.14 0.12 0.22 0.15 0.10 0.06 0.09 0.16 0.05 0.05 0.00 0.00 0.00 0.00 0.00 0.00
0.04 0.08 0.13 0.10 0.05 0.02 0.06 0.08 0.13 0.04 0.02 0.01 0.01 0.06 0.12 0.10 0.17 0.17 0.16 0.15 0.20 0.10 0.06 0.08 0.07 0.03 0.00 0.00 0.00 0.00 0.00 0.00
0.03 0.00 0.00 0.01 0.02 0.03 0.06 0.11 0.14 0.04 0.01 0.00 0.01 0.06 0.08 0.16 0.17 0.13 0.10 0.09 0.11 0.12 0.09 0.10 0.14 0.12 0.10 0.03 0.00 0.00 0.00 0.00
0.00 0.01 0.00 0.00 0.04 0.07 0.08 0.11 0.15 0.08 0.01 0.06 0.12 0.14 0.15 0.16 0.13 0.10 0.08 0.08 0.07 0.05 0.03 0.02 0.03 0.02 0.02 0.03 0.03 0.02 0.03 0.01
0.02 0.02 0.01 0.01 0.05 0.08 0.10 0.12 0.19 0.09 0.06 0.07 0.13 0.17 0.13 0.09 0.08 0.09 0.06 0.07 0.07 0.04 0.04 0.03 0.03 0.03 0.04 0.12 0.20 0.14 0.14 0.07
0.03 0.02 0.01 0.02 0.04 0.08 0.08 0.07 0.09 0.09 0.12 0.06 0.04 0.12 0.15 0.13 0.10 0.16 0.12 0.06 0.05 0.08 0.10 0.08 0.06 0.10 0.18 0.18 0.14 0.13 0.12 0.12
0.01 0.01 0.02 0.02 0.07 0.18 0.12 0.11 0.11 0.07 0.11 0.16 0.19 0.24 0.27 0.36 0.29 0.26 0.16 0.16 0.17 0.27 0.30 0.26 0.21 0.17 0.16 0.21 0.29 0.32 0.26 0.16
0.00 0.01 0.02 0.02 0.02 0.15 0.20 0.13 0.12 0.08 0.10 0.16 0.24 0.34 0.36 0.30 0.27 0.29 0.27 0.18 0.12 0.21 0.27 0.19 0.17 0.20 0.22 0.22 0.19 0.16 0.13 0.16
0.00 0.00 0.00 0.01 0.01 0.05 0.06 0.05 0.10 0.10 0.07 0.10 0.15 0.26 0.33 0.33 0.52 0.44 0.34 0.21 0.18 0.16 0.15 0.18 0.17 0.13 0.13 0.14 0.10 0.11 0.14 0.16
0.00 0.00 0.00 0.00 0.00 0.01 0.00 0.02 0.03 0.02 0.06 0.17 0.26 0.32 0.50 0.54 0.36 0.31 0.24 0.15 0.09 0.08 0.07 0.10 0.13 0.17 0.22 0.21 0.16 0.13 0.12 0.08
0.00 0.00 0.00 0.00 0.00 0.00 0.00 0.02 0.07 0.14 0.24 0.47 0.42 0.54 0.40 0.32 0.24 0.18 0.13 0.07 0.06 0.06 0.08 0.10 0.14 0.17 0.17 0.14 0.11 0.07 0.04 0.03
0.00 0.00 0.00 0.00 0.00 0.01 0.06 0.09 0.14 0.24 0.37 0.33 0.45 0.43 0.23 0.21 0.15 0.10 0.06 0.05 0.05 0.06 0.06 0.08 0.09 0.09 0.12 0.12 0.07 0.04 0.02 0.00
0.00 0.00 0.00 0.00 0.03 0.09 0.11 0.10 0.16 0.18 0.20 0.25 0.22 0.19 0.18 0.10 0.06 0.06 0.04 0.05 0.04 0.03 0.03 0.04 0.06 0.08 0.07 0.06 0.04 0.01 0.00 0.00
0.01 0.01 0.03 0.04 0.07 0.10 0.11 0.14 0.12 0.14 0.18 0.15 0.14 0.08 0.07 0.04 0.04 0.04 0.07 0.03 0.02 0.01 0.03 0.07 0.06 0.04 0.04 0.03 0.01 0.00 0.00 0.00
0.00 0.01 0.03 0.04 0.06 0.08 0.10 0.08 0.08 0.08 0.15 0.11 0.06 0.04 0.04 0.04 0.04 0.05 0.02 0.01 0.03 0.08 0.10 0.08 0.06 0.04 0.03 0.01 0.00 0.00 0.00 0.00
0.00 0.00 0.02 0.09 0.05 0.05 0.05 0.05 0.05 0.06 0.05 0.03 0.02 0.02 0.02 0.02 0.02 0.03 0.06 0.13 0.16 0.15 0.15 0.10 0.04 0.01 0.01 0.00 0.00 0.00 0.00 0.00
0.00 0.00 0.05 0.03 0.01 0.02 0.03 0.03 0.02 0.02 0.01 0.01 0.03 0.02 0.01 0.03 0.09 0.16 0.22 0.19 0.17 0.11 0.03 0.01 0.01 0.00 0.00 0.00 0.00 0.00 0.00 0.00

GFSFLT1_prec_precacc_063.txt.gz
Total_Precipitation_Accumulation
0.00 0.03 0.04 0.06 0.08 0.31 0.54 0.61 0.93 1.16 0.71 0.24 0.09 0.13 0.08 0.13 0.11 0.10 0.10 0.06 0.08 0.02 0.01 0.01 0.00 0.00 0.00 0.00 0.00 0.00 0.00 0.00
0.02 0.05 0.06 0.08 0.18 0.41 0.62 0.96 0.92 0.32 0.11 0.07 0.05 0.07 0.13 0.21 0.17 0.15 0.15 0.08 0.13 0.11 0.07 0.10 0.01 0.01 0.00 0.00 0.00 0.00 0.00 0.00
0.01 0.04 0.10 0.28 0.44 0.44 0.31 0.14 0.12 0.02 0.02 0.05 0.05 0.06 0.11 0.18 0.14 0.12 0.22 0.15 0.11 0.07 0.13 0.26 0.12 0.09 0.01 0.00 0.00 0.00 0.00 0.00
0.04 0.08 0.13 0.10 0.05 0.02 0.06 0.08 0.13 0.04 0.02 0.01 0.01 0.06 0.12 0.10 0.17 0.17 0.16 0.15 0.20 0.13 0.16 0.20 0.15 0.08 0.03 0.00 0.00 0.00 0.00 0.00
0.03 0.00 0.00 0.01 0.02 0.03 0.06 0.11 0.14 0.04 0.01 0.00 0.01 0.06 0.08 0.16 0.17 0.13 0.10 0.09 0.11 0.12 0.15 0.16 0.18 0.13 0.11 0.05 0.02 0.01 0.03 0.06
0.00 0.01 0.00 0.00 0.04 0.07 0.08 0.11 0.15 0.08 0.01 0.06 0.12 0.14 0.15 0.16 0.13 0.10 0.08 0.08 0.07 0.05 0.03 0.03 0.03 0.03 0.02 0.04 0.05 0.12 0.19 0.21
0.02 0.02 0.01 0.01 0.05 0.08 0.10 0.12 0.19 0.09 0.06 0.07 0.13 0.17 0.14 0.10 0.08 0.09 0.06 0.07 0.08 0.07 0.05 0.03 0.03 0.03 0.04 0.12 0.27 0.30 0.27 0.25
0.03 0.02 0.01 0.02 0.04 0.08 0.08 0.07 0.09 0.09 0.12 0.07 0.05 0.12 0.16 0.16 0.12 0.17 0.12 0.07 0.06 0.13 0.18 0.11 0.06 0.11 0.19 0.19 0.16 0.17 0.18 0.20
0.01 0.01 0.02 0.03 0.07 0.18 0.12 0.11 0.11 0.07 0.11 0.16 0.20 0.25 0.31 0.37 0.35 0.29 0.17 0.19 0.23 0.39 0.48 0.40 0.27 0.18 0.16 0.21 0.30 0.33 0.29 0.25
0.00 0.01 0.02 0.03 0.03 0.15 0.20 0.13 0.12 0.08 0.10 0.16 0.24 0.36 0.39 0.30 0.30 0.48 0.36 0.25 0.17 0.32 0.44 0.28 0.20 0.20 0.22 0.23 0.20 0.20 0.19 0.18
0.00 0.00 0.00 0.01 0.01 0.06 0.08 0.07 0.11 0.10 0.08 0.10 0.15 0.27 0.37 0.38 0.69 0.91 0.96 0.68 0.40 0.24 0.22 0.20 0.17 0.14 0.14 0.16 0.18 0.18 0.17 0.16
0.00 0.00 0.01 0.00 0.00 0.01 0.02 0.05 0.07 0.04 0.10 0.20 0.33 0.39 0.56 0.74 0.64 0.89 0.51 0.30 0.19 0.13 0.09 0.10 0.14 0.17 0.23 0.24 0.20 0.16 0.13 0.09
0.00 0.00 0.01 0.00 0.00 0.00 0.00 0.04 0.14 0.28 0.40 0.87 0.82 0.97 0.90 0.82 0.86 0.73 0.30 0.13 0.14 0.09 0.09 0.11 0.14 0.17 0.17 0.15 0.12 0.08 0.05 0.04
0.00 0.00 0.00 0.00 0.01 0.03 0.15 0.49 0.82 0.70 0.77 0.68 0.67 0.79 0.47 0.39 0.24 0.16 0.10 0.08 0.06 0.06 0.06 0.09 0.10 0.09 0.13 0.14 0.11 0.06 0.02 0.01
0.00 0.00 0.00 0.00 0.04 0.13 0.20 0.37 0.40 0.38 0.43 0.41 0.32 0.29 0.23 0.12 0.09 0.07 0.06 0.05 0.04 0.03 0.03 0.04 0.07 0.10 0.10 0.07 0.04 0.02 0.00 0.00
0.01 0.01 0.03 0.04 0.07 0.10 0.11 0.15 0.18 0.21 0.23 0.19 0.16 0.09 0.09 0.07 0.06 0.06 0.08 0.03 0.02 0.01 0.03 0.08 0.07 0.05 0.04 0.03 0.01 0.00 0.00 0.00
0.00 0.01 0.03 0.04 0.06 0.09 0.10 0.09 0.11 0.10 0.18 0.13 0.08 0.04 0.04 0.05 0.05 0.05 0.02 0.01 0.03 0.08 0.10 0.08 0.06 0.04 0.03 0.01 0.00 0.00 0.00 0.00
0.00 0.00 0.02 0.12 0.05 0.06 0.06 0.07 0.07 0.08 0.07 0.04 0.02 0.04 0.03 0.02 0.03 0.03 0.06 0.13 0.16 0.15 0.15 0.10 0.04 0.01 0.01 0.00 0.00 0.00 0.00 0.00
0.00 0.00 0.08 0.06 0.01 0.02 0.03 0.03 0.03 0.02 0.01 0.01 0.03 0.03 0.02 0.03 0.09 0.16 0.22 0.19 0.17 0.11 0.03 0.01 0.01 0.00 0.00 0.00 0.00 0.00 0.00 0.00

GFSFLT1_prec_precacc_069.txt.gz
Total_Precipitation_Accumulation
0.00 0.03 0.04 0.06 0.08 0.31 0.56 0.68 0.99 1.20 0.72 0.24 0.10 0.13 0.08 0.13 0.11 0.11 0.10 0.06 0.08 0.02 0.01 0.01 0.00 0.00 0.00 0.00 0.00 0.00 0.00 0.00
0.02 0.05 0.06 0.08 0.18 0.41 0.63 0.99 0.92 0.32 0.11 0.08 0.06 0.07 0.13 0.21 0.17 0.15 0.15 0.08 0.13 0.11 0.07 0.10 0.01 0.01 0.00 0.00 0.00 0.00 0.00 0.00
0.01 0.04 0.10 0.28 0.44 0.44 0.31 0.14 0.12 0.02 0.02 0.05 0.05 0.06 0.11 0.18 0.14 0.12 0.22 0.15 0.11 0.07 0.13 0.26 0.12 0.09 0.02 0.02 0.00 0.00 0.00 0.00
0.04 0.08 0.13 0.10 0.05 0.02 0.06 0.08 0.13 0.04 0.02 0.01 0.01 0.06 0.12 0.10 0.17 0.17 0.16 0.15 0.20 0.13 0.16 0.20 0.15 0.08 0.03 0.01 0.01 0.00 0.00 0.00
0.03 0.00 0.00 0.01 0.02 0.03 0.06 0.11 0.14 0.04 0.01 0.00 0.01 0.06 0.08 0.16 0.17 0.13 0.10 0.09 0.11 0.12 0.15 0.16 0.18 0.13 0.12 0.07 0.02 0.02 0.05 0.08
0.00 0.01 0.00 0.00 0.04 0.07 0.08 0.11 0.15 0.08 0.01 0.06 0.12 0.14 0.15 0.16 0.13 0.10 0.08 0.08 0.07 0.05 0.04 0.03 0.03 0.04 0.06 0.07 0.07 0.14 0.22 0.26
0.02 0.02 0.01 0.01 0.05 0.08 0.10 0.12 0.19 0.09 0.06 0.07 0.13 0.17 0.14 0.10 0.08 0.09 0.06 0.07 0.08 0.07 0.05 0.04 0.04 0.07 0.07 0.14 0.29 0.33 0.30 0.28
0.03 0.02 0.01 0.02 0.04 0.08 0.08 0.07 0.09 0.09 0.12 0.07 0.05 0.12 0.16 0.16 0.12 0.17 0.12 0.07 0.06 0.15 0.22 0.19 0.13 0.16 0.28 0.26 0.20 0.21 0.22 0.24
0.01 0.01 0.02 0.03 0.07 0.18 0.12 0.11 0.11 0.07 0.11 0.16 0.20 0.25 0.31 0.37 0.36 0.31 0.19 0.21 0.24 0.39 0.52 0.55 0.47 0.35 0.33 0.35 0.37 0.38 0.32 0.28
0.00 0.01 0.02 0.03 0.03 0.16 0.20 0.13 0.12 0.08 0.10 0.16 0.24 0.37 0.40 0.30 0.35 0.57 0.42 0.37 0.28 0.39 0.49 0.40 0.40 0.36 0.39 0.35 0.25 0.21 0.23 0.29
0.00 0.00 0.00 0.01 0.02 0.11 0.15 0.09 0.11 0.10 0.08 0.10 0.15 0.27 0.41 0.48 0.80 1.09 1.22 0.99 0.76 0.49 0.51 0.47 0.34 0.24 0.23 0.20 0.19 0.19 0.19 0.18
0.00 0.00 0.01 0.00 0.01 0.05 0.13 0.18 0.15 0.06 0.10 0.20 0.33 0.39 0.58 0.91 0.87 1.17 0.94 0.89 0.95 0.79 0.50 0.42 0.23 0.27 0.30 0.26 0.21 0.16 0.13 0.10
0.00 0.00 0.01 0.00 0.00 0.01 0.06 0.26 0.48 0.63 0.59 1.00 0.92 1.05 1.21 1.11 1.37 1.94 1.33 0.97 0.70 0.48 0.31 0.19 0.18 0.19 0.18 0.15 0.12 0.10 0.07 0.05
0.00 0.00 0.00 0.00 0.01 0.04 0.21 0.71 1.11 0.90 0.95 0.97 1.08 1.49 0.97 0.59 0.44 0.36 0.31 0.23 0.15 0.10 0.09 0.12 0.14 0.13 0.16 0.17 0.14 0.09 0.06 0.04
0.00 0.00 0.00 0.00 0.04 0.14 0.21 0.45 0.69 0.70 0.68 0.68 0.64 0.61 0.60 0.38 0.30 0.22 0.14 0.13 0.13 0.07 0.08 0.09 0.10 0.12 0.13 0.11 0.07 0.03 0.01 0.01
0.01 0.01 0.03 0.04 0.07 0.10 0.11 0.21 0.24 0.27 0.31 0.28 0.24 0.19 0.18 0.16 0.15 0.10 0.11 0.05 0.05 0.05 0.07 0.12 0.09 0.07 0.07 0.05 0.02 0.01 0.01 0.01
0.00 0.01 0.03 0.04 0.06 0.09 0.10 0.11 0.15 0.15 0.22 0.18 0.13 0.08 0.10 0.11 0.10 0.12 0.05 0.04 0.07 0.11 0.14 0.12 0.08 0.05 0.08 0.04 0.01 0.00 0.00 0.00
0.00 0.00 0.02 0.12 0.05 0.06 0.06 0.08 0.09 0.11 0.10 0.09 0.08 0.10 0.07 0.06 0.06 0.07 0.08 0.16 0.19 0.18 0.17 0.12 0.05 0.02 0.03 0.01 0.00 0.00 0.00 0.00
0.00 0.00 0.08 0.06 0.01 0.02 0.03 0.03 0.03 0.03 0.03 0.04 0.06 0.08 0.06 0.06 0.11 0.17 0.23 0.22 0.20 0.13 0.05 0.02 0.01 0.01 0.01 0.00 0.00 0.00 0.00 0.00

GFSFLT1_prec_precacc_072.txt.gz
Total_Precipitation_Accumulation
0.00 0.03 0.04 0.06 0.08 0.31 0.56 0.69 1.12 1.40 0.77 0.27 0.18 0.22 0.17 0.21 0.15 0.11 0.10 0.06 0.08 0.02 0.01 0.01 0.00 0.00 0.00 0.00 0.00 0.00 0.00 0.00
0.02 0.05 0.06 0.08 0.18 0.41 0.63 0.99 0.95 0.41 0.19 0.09 0.12 0.13 0.23 0.27 0.20 0.16 0.15 0.08 0.13 0.11 0.07 0.10 0.01 0.01 0.00 0.00 0.00 0.00 0.00 0.00
0.01 0.04 0.10 0.29 0.44 0.44 0.32 0.14 0.12 0.03 0.04 0.06 0.08 0.11 0.15 0.20 0.15 0.13 0.23 0.16 0.12 0.08 0.13 0.27 0.13 0.10 0.02 0.02 0.00 0.00 0.00 0.00
0.04 0.08 0.13 0.11 0.05 0.02 0.06 0.08 0.13 0.04 0.02 0.02 0.02 0.08 0.14 0.11 0.18 0.18 0.17 0.16 0.21 0.15 0.19 0.21 0.15 0.08 0.03 0.01 0.01 0.00 0.00 0.01
0.03 0.00 0.00 0.01 0.02 0.03 0.06 0.11 0.14 0.04 0.01 0.00 0.02 0.06 0.09 0.16 0.17 0.13 0.10 0.10 0.12 0.12 0.15 0.16 0.18 0.13 0.12 0.07 0.02 0.02 0.05 0.09
0.00 0.01 0.00 0.00 0.04 0.07 0.08 0.11 0.15 0.08 0.01 0.06 0.12 0.14 0.15 0.16 0.13 0.10 0.08 0.08 0.07 0.05 0.04 0.03 0.03 0.04 0.06 0.08 0.08 0.15 0.23 0.26
0.02 0.02 0.01 0.01 0.05 0.08 0.10 0.12 0.19 0.09 0.06 0.07 0.13 0.17 0.14 0.10 0.08 0.09 0.06 0.07 0.08 0.07 0.05 0.04 0.04 0.07 0.07 0.16 0.34 0.35 0.31 0.28
0.03 0.02 0.01 0.02 0.04 0.08 0.08 0.07 0.09 0.09 0.12 0.07 0.05 0.12 0.16 0.16 0.12 0.17 0.12 0.07 0.06 0.15 0.22 0.19 0.13 0.16 0.28 0.26 0.21 0.23 0.28 0.30
0.01 0.01 0.02 0.03 0.07 0.18 0.12 0.11 0.11 0.07 0.11 0.16 0.20 0.25 0.31 0.37 0.36 0.31 0.19 0.21 0.24 0.39 0.52 0.55 0.47 0.35 0.33 0.38 0.41 0.44 0.43 0.36
0.00 0.01 0.02 0.03 0.03 0.16 0.20 0.13 0.12 0.08 0.10 0.16 0.24 0.37 0.40 0.30 0.35 0.57 0.42 0.37 0.28 0.39 0.49 0.40 0.40 0.36 0.40 0.52 0.50 0.39 0.30 0.29
0.00 0.00 0.00 0.01 0.02 0.11 0.16 0.10 0.11 0.10 0.08 0.10 0.15 0.27 0.41 0.48 0.80 1.09 1.22 0.99 0.77 0.49 0.53 0.52 0.38 0.25 0.24 0.25 0.27 0.25 0.21 0.18
0.00 0.00 0.01 0.00 0.01 0.05 0.13 0.23 0.20 0.07 0.10 0.20 0.33 0.39 0.58 0.91 0.87 1.17 0.94 0.90 0.96 0.82 0.62 0.62 0.52 0.42 0.37 0.32 0.27 0.22 0.16 0.11
0.00 0.00 0.01 0.00 0.00 0.01 0.07 0.29 0.53 0.68 0.59 1.00 0.92 1.05 1.21 1.11 1.37 1.94 1.33 0.97 0.72 0.50 0.36 0.27 0.26 0.29 0.27 0.20 0.15 0.13 0.10 0.07
0.00 0.00 0.00 0.00 0.01 0.04 0.21 0.72 1.13 0.95 1.00 0.98 1.08 1.49 0.97 0.59 0.44 0.36 0.32 0.25 0.19 0.12 0.10 0.13 0.14 0.14 0.18 0.18 0.17 0.14 0.10 0.07
0.00 0.00 0.00 0.00 0.04 0.14 0.21 0.45 0.69 0.71 0.72 0.70 0.65 0.62 0.60 0.38 0.30 0.25 0.26 0.24 0.22 0.14 0.13 0.13 0.13 0.13 0.13 0.12 0.10 0.07 0.05 0.05
0.01 0.01 0.03 0.04 0.07 0.10 0.11 0.21 0.24 0.27 0.32 0.29 0.25 0.21 0.18 0.16 0.16 0.12 0.13 0.07 0.06 0.08 0.12 0.18 0.15 0.09 0.09 0.07 0.04 0.04 0.05 0.06
0.00 0.01 0.03 0.04 0.06 0.09 0.10 0.11 0.15 0.15 0.22 0.18 0.14 0.14 0.16 0.13 0.12 0.14 0.08 0.07 0.10 0.13 0.15 0.14 0.11 0.08 0.15 0.08 0.04 0.02 0.02 0.03
0.00 0.00 0.02 0.12 0.05 0.06 0.06 0.08 0.09 0.11 0.10 0.09 0.08 0.13 0.11 0.12 0.09 0.11 0.17 0.23 0.26 0.22 0.21 0.16 0.10 0.06 0.09 0.04 0.05 0.02 0.03 0.02
0.00 0.00 0.08 0.06 0.01 0.02 0.03 0.03 0.03 0.03 0.03 0.04 0.07 0.09 0.09 0.08 0.13 0.19 0.27 0.29 0.27 0.17 0.09 0.06 0.05 0.05 0.06 0.03 0.03 0.01 0.02 0.01

GFSFLT1_prec_precacc_075.txt.gz
Total_Precipitation_Accumulation
0.00 0.03 0.04 0.06 0.08 0.31 0.56 0.70 1.18 1.54 0.80 0.31 0.23 0.30 0.35 0.36 0.18 0.11 0.10 0.06 0.08 0.02 0.01 0.01 0.00 0.00 0.00 0.00 0.00 0.00 0.00 0.00
0.02 0.05 0.06 0.08 0.18 0.42 0.63 0.99 0.95 0.46 0.21 0.10 0.15 0.23 0.39 0.46 0.31 0.16 0.15 0.08 0.13 0.11 0.07 0.10 0.01 0.01 0.00 0.01 0.01 0.00 0.00 0.00
0.01 0.04 0.10 0.29 0.44 0.44 0.32 0.14 0.12 0.03 0.04 0.06 0.09 0.14 0.24 0.33 0.30 0.14 0.23 0.16 0.12 0.08 0.13 0.27 0.14 0.10 0.02 0.02 0.01 0.01 0.01 0.00
0.04 0.08 0.13 0.11 0.05 0.02 0.06 0.08 0.13 0.04 0.02 0.02 0.05 0.21 0.27 0.21 0.32 0.21 0.17 0.16 0.21 0.15 0.19 0.23 0.16 0.09 0.05 0.02 0.01 0.00 0.00 0.01
0.03 0.00 0.00 0.01 0.02 0.03 0.06 0.11 0.14 0.04 0.01 0.00 0.02 0.11 0.16 0.21 0.20 0.16 0.11 0.10 0.13 0.13 0.15 0.17 0.21 0.16 0.13 0.08 0.02 0.02 0.05 0.09
0.00 0.01 0.00 0.00 0.04 0.07 0.08 0.11 0.15 0.08 0.01 0.06 0.12 0.14 0.16 0.20 0.16 0.12 0.09 0.08 0.07 0.06 0.05 0.05 0.04 0.06 0.08 0.11 0.12 0.17 0.24 0.27
0.02 0.02 0.01 0.01 0.05 0.08 0.10 0.12 0.19 0.09 0.06 0.07 0.13 0.17 0.14 0.10 0.08 0.09 0.06 0.07 0.08 0.07 0.05 0.05 0.04 0.07 0.08 0.18 0.39 0.37 0.32 0.30
0.03 0.02 0.01 0.02 0.04 0.08 0.08 0.07 0.09 0.09 0.12 0.07 0.05 0.12 0.16 0.16 0.12 0.17 0.12 0.07 0.06 0.15 0.22 0.19 0.13 0.16 0.28 0.26 0.23 0.26 0.31 0.33
0.01 0.01 0.02 0.03 0.07 0.18 0.12 0.11 0.11 0.07 0.11 0.16 0.20 0.25 0.31 0.37 0.36 0.31 0.19 0.21 0.24 0.39 0.52 0.55 0.47 0.35 0.33 0.38 0.41 0.44 0.44 0.38
0.00 0.01 0.02 0.03 0.03 0.16 0.20 0.13 0.12 0.08 0.10 0.16 0.24 0.37 0.40 0.30 0.35 0.57 0.42 0.37 0.28 0.39 0.49 0.40 0.40 0.36 0.40 0.52 0.50 0.40 0.32 0.32
0.00 0.00 0.00 0.01 0.02 0.11 0.16 0.10 0.11 0.10 0.08 0.10 0.15 0.27 0.41 0.48 0.80 1.09 1.22 0.99 0.77 0.49 0.53 0.52 0.38 0.25 0.24 0.25 0.28 0.27 0.26 0.22
0.00 0.00 0.01 0.00 0.01 0.05 0.13 0.23 0.23 0.09 0.10 0.20 0.33 0.39 0.58 0.91 0.87 1.17 0.94 0.90 0.96 0.82 0.62 0.63 0.56 0.49 0.45 0.39 0.32 0.26 0.21 0.15
0.00 0.00 0.01 0.00 0.00 0.01 0.07 0.29 0.53 0.73 0.66 1.00 0.92 1.05 1.21 1.11 1.37 1.94 1.33 0.97 0.72 0.50 0.36 0.28 0.29 0.34 0.36 0.30 0.22 0.17 0.16 0.14
0.00 0.00 0.00 0.00 0.01 0.04 0.21 0.72 1.13 0.95 1.02 0.99 1.08 1.49 0.97 0.59 0.44 0.36 0.32 0.25 0.19 0.12 0.10 0.13 0.15 0.14 0.20 0.27 0.29 0.27 0.22 0.14
0.00 0.00 0.00 0.00 0.04 0.14 0.21 0.45 0.69 0.71 0.72 0.70 0.65 0.62 0.61 0.38 0.30 0.25 0.26 0.24 0.22 0.15 0.13 0.14 0.14 0.14 0.14 0.12 0.11 0.08 0.08 0.08
0.01 0.01 0.03 0.04 0.07 0.10 0.11 0.21 0.24 0.27 0.32 0.29 0.26 0.23 0.18 0.16 0.16 0.12 0.13 0.07 0.06 0.08 0.12 0.19 0.18 0.12 0.12 0.11 0.07 0.05 0.06 0.08
0.00 0.01 0.03 0.04 0.06 0.09 0.10 0.11 0.15 0.15 0.22 0.18 0.14 0.14 0.16 0.13 0.12 0.14 0.08 0.07 0.10 0.14 0.16 0.15 0.12 0.10 0.17 0.11 0.06 0.03 0.04 0.05
0.00 0.00 0.02 0.12 0.05 0.06 0.06 0.08 0.09 0.11 0.10 0.09 0.08 0.13 0.11 0.12 0.10 0.11 0.18 0.24 0.27 0.23 0.23 0.17 0.10 0.07 0.13 0.07 0.07 0.03 0.05 0.04
0.00 0.00 0.08 0.06 0.01 0.02 0.03 0.03 0.03 0.03 0.03 0.04 0.07 0.09 0.09 0.08 0.14 0.20 0.28 0.30 0.28 0.19 0.11 0.09 0.09 0.11 0.12 0.06 0.05 0.01 0.03 0.03

GFSFLT1_prec_precacc_078.txt.gz
Total_Precipitation_Accumulation
0.00 0.03 0.04 0.06 0.08 0.32 0.57 0.70 1.20 1.57 0.84 0.32 0.33 0.50 0.47 0.39 0.18 0.11 0.10 0.06 0.08 0.02 0.01 0.01 0.00 0.00 0.00 0.00 0.00 0.00 0.00 0.00
0.02 0.05 0.06 0.08 0.18 0.42 0.64 0.99 0.96 0.47 0.22 0.11 0.21 0.40 0.51 0.49 0.31 0.16 0.15 0.08 0.13 0.11 0.07 0.10 0.01 0.01 0.00 0.01 0.01 0.00 0.00 0.00
0.01 0.04 0.10 0.29 0.44 0.44 0.33 0.15 0.12 0.03 0.05 0.06 0.09 0.19 0.39 0.39 0.31 0.14 0.23 0.16 0.12 0.08 0.13 0.27 0.14 0.10 0.02 0.02 0.02 0.02 0.03 0.02
0.04 0.08 0.13 0.11 0.05 0.02 0.06 0.08 0.13 0.04 0.02 0.03 0.05 0.23 0.39 0.31 0.36 0.22 0.17 0.16 0.22 0.15 0.19 0.23 0.16 0.09 0.05 0.02 0.01 0.00 0.01 0.02
0.03 0.00 0.00 0.01 0.02 0.03 0.06 0.12 0.15 0.04 0.01 0.01 0.02 0.11 0.20 0.23 0.21 0.16 0.12 0.10 0.13 0.13 0.15 0.17 0.21 0.16 0.13 0.08 0.04 0.03 0.05 0.09
0.00 0.01 0.00 0.00 0.04 0.07 0.08 0.11 0.15 0.08 0.01 0.06 0.12 0.15 0.17 0.21 0.19 0.14 0.10 0.09 0.08 0.06 0.05 0.05 0.04 0.06 0.08 0.12 0.13 0.17 0.24 0.27
0.02 0.02 0.01 0.01 0.05 0.08 0.10 0.12 0.19 0.09 0.06 0.07 0.13 0.17 0.15 0.12 0.10 0.10 0.06 0.07 0.08 0.07 0.05 0.05 0.05 0.07 0.09 0.20 0.42 0.39 0.33 0.32
0.03 0.02 0.01 0.02 0.04 0.08 0.08 0.07 0.09 0.09 0.12 0.07 0.05 0.12 0.16 0.16 0.12 0.17 0.12 0.07 0.06 0.15 0.22 0.19 0.15 0.17 0.32 0.33 0.29 0.31 0.33 0.35
0.01 0.01 0.02 0.03 0.07 0.18 0.12 0.11 0.11 0.07 0.11 0.16 0.20 0.25 0.31 0.37 0.36 0.31 0.19 0.21 0.24 0.39 0.53 0.56 0.47 0.37 0.36 0.42 0.45 0.47 0.45 0.39
0.00 0.01 0.02 0.03 0.03 0.16 0.20 0.13 0.12 0.08 0.10 0.16 0.24 0.37 0.40 0.30 0.35 0.57 0.42 0.37 0.28 0.39 0.50 0.40 0.40 0.36 0.40 0.53 0.51 0.41 0.33 0.32
0.00 0.00 0.00 0.01 0.02 0.11 0.16 0.10 0.11 0.10 0.08 0.10 0.15 0.27 0.41 0.48 0.80 1.09 1.22 0.99 0.77 0.49 0.53 0.52 0.38 0.25 0.24 0.25 0.28 0.27 0.26 0.23
0.00 0.00 0.01 0.00 0.01 0.05 0.13 0.23 0.23 0.09 0.10 0.20 0.33 0.39 0.58 0.91 0.87 1.17 0.94 0.90 0.96 0.82 0.62 0.63 0.56 0.49 0.45 0.39 0.32 0.26 0.21 0.17
0.00 0.00 0.01 0.00 0.00 0.01 0.07 0.29 0.53 0.73 0.69 1.01 0.92 1.05 1.21 1.11 1.37 1.94 1.33 0.97 0.72 0.50 0.36 0.28 0.29 0.34 0.36 0.30 0.23 0.19 0.18 0.17
0.00 0.00 0.00 0.00 0.01 0.04 0.21 0.72 1.13 0.95 1.02 1.00 1.09 1.49 0.97 0.59 0.44 0.36 0.32 0.25 0.19 0.12 0.10 0.13 0.15 0.14 0.20 0.27 0.30 0.28 0.27 0.24
0.00 0.00 0.00 0.00 0.04 0.14 0.21 0.45 0.69 0.71 0.72 0.70 0.65 0.62 0.61 0.38 0.30 0.25 0.26 0.24 0.22 0.15 0.13 0.14 0.14 0.14 0.14 0.12 0.11 0.09 0.09 0.13
0.01 0.01 0.03 0.04 0.07 0.10 0.11 0.21 0.24 0.27 0.32 0.29 0.26 0.23 0.18 0.16 0.16 0.12 0.13 0.07 0.06 0.08 0.12 0.19 0.18 0.14 0.14 0.12 0.08 0.07 0.07 0.08
0.00 0.01 0.03 0.04 0.06 0.09 0.10 0.11 0.15 0.15 0.22 0.18 0.14 0.14 0.16 0.13 0.12 0.14 0.08 0.07 0.10 0.14 0.16 0.15 0.12 0.10 0.17 0.11 0.06 0.04 0.04 0.06
0.00 0.00 0.02 0.12 0.05 0.06 0.06 0.08 0.09 0.11 0.10 0.09 0.08 0.13 0.11 0.12 0.10 0.12 0.19 0.26 0.27 0.23 0.23 0.18 0.11 0.08 0.13 0.07 0.08 0.04 0.06 0.07
0.00 0.00 0.08 0.06 0.01 0.02 0.03 0.03 0.03 0.03 0.03 0.04 0.07 0.09 0.09 0.08 0.14 0.20 0.28 0.31 0.29 0.20 0.12 0.11 0.11 0.11 0.14 0.08 0.09 0.03 0.04 0.05

GFSFLT1_prec_precacc_081.txt.gz
Total_Precipitation_Accumulation
0.00 0.03 0.04 0.06 0.08 0.32 0.58 0.71 1.20 1.57 0.85 0.34 0.39 0.62 0.51 0.41 0.19 0.14 0.15 0.10 0.09 0.02 0.01 0.01 0.00 0.00 0.00 0.00 0.00 0.00 0.00 0.00
0.02 0.05 0.06 0.08 0.18 0.42 0.64 1.00 0.97 0.47 0.23 0.13 0.25 0.45 0.58 0.50 0.31 0.16 0.16 0.08 0.13 0.11 0.07 0.10 0.01 0.01 0.00 0.01 0.01 0.00 0.00 0.00
0.01 0.04 0.10 0.29 0.44 0.44 0.33 0.15 0.12 0.04 0.05 0.08 0.11 0.20 0.41 0.40 0.31 0.14 0.23 0.16 0.12 0.08 0.13 0.27 0.14 0.10 0.02 0.02 0.02 0.02 0.03 0.02
0.04 0.08 0.13 0.11 0.05 0.02 0.06 0.08 0.14 0.05 0.03 0.05 0.08 0.25 0.41 0.33 0.37 0.22 0.17 0.16 0.22 0.15 0.19 0.23 0.16 0.09 0.05 0.02 0.01 0.00 0.01 0.03
0.03 0.00 0.00 0.01 0.02 0.03 0.06 0.12 0.15 0.05 0.01 0.02 0.04 0.12 0.23 0.24 0.21 0.17 0.12 0.10 0.13 0.13 0.15 0.17 0.21 0.16 0.14 0.08 0.04 0.03 0.05 0.10
0.00 0.01 0.00 0.00 0.04 0.07 0.08 0.12 0.16 0.08 0.01 0.06 0.14 0.16 0.19 0.23 0.19 0.14 0.10 0.09 0.08 0.06 0.05 0.05 0.04 0.06 0.08 0.12 0.13 0.17 0.24 0.31
0.02 0.02 0.01 0.01 0.05 0.08 0.10 0.13 0.19 0.10 0.06 0.07 0.14 0.18 0.16 0.14 0.11 0.10 0.06 0.07 0.08 0.07 0.05 0.05 0.05 0.07 0.10 0.20 0.47 0.43 0.36 0.39
0.03 0.02 0.01 0.02 0.04 0.08 0.08 0.07 0.09 0.09 0.12 0.07 0.05 0.13 0.16 0.16 0.13 0.17 0.12 0.07 0.06 0.15 0.22 0.19 0.15 0.17 0.33 0.37 0.37 0.35 0.40 0.43
0.01 0.01 0.02 0.03 0.07 0.18 0.12 0.11 0.11 0.07 0.11 0.17 0.20 0.25 0.31 0.37 0.36 0.31 0.19 0.21 0.24 0.39 0.53 0.56 0.47 0.37 0.36 0.47 0.52 0.52 0.52 0.43
0.00 0.01 0.02 0.03 0.03 0.16 0.20 0.13 0.12 0.08 0.10 0.16 0.25 0.37 0.40 0.31 0.35 0.58 0.42 0.37 0.28 0.39 0.50 0.40 0.40 0.37 0.40 0.55 0.57 0.44 0.36 0.36
0.00 0.00 0.00 0.01 0.02 0.11 0.16 0.10 0.11 0.10 0.08 0.10 0.15 0.27 0.41 0.48 0.80 1.10 1.22 0.99 0.77 0.49 0.53 0.52 0.39 0.25 0.24 0.26 0.30 0.29 0.29 0.27
0.00 0.00 0.01 0.00 0.01 0.05 0.13 0.23 0.23 0.09 0.10 0.20 0.33 0.39 0.58 0.91 0.87 1.17 0.94 0.90 0.96 0.82 0.62 0.63 0.56 0.50 0.46 0.40 0.33 0.27 0.23 0.19
0.00 0.00 0.01 0.00 0.00 0.01 0.07 0.29 0.53 0.73 0.69 1.01 0.92 1.05 1.21 1.11 1.37 1.94 1.33 0.97 0.72 0.50 0.36 0.28 0.29 0.34 0.37 0.30 0.24 0.19 0.18 0.18
0.00 0.00 0.00 0.00 0.01 0.04 0.21 0.72 1.13 0.95 1.02 1.00 1.09 1.49 0.97 0.59 0.44 0.36 0.32 0.25 0.19 0.12 0.10 0.13 0.15 0.14 0.20 0.27 0.30 0.28 0.27 0.24
0.00 0.00 0.00 0.00 0.04 0.14 0.21 0.45 0.69 0.71 0.72 0.70 0.65 0.63 0.61 0.38 0.30 0.25 0.26 0.24 0.22 0.15 0.13 0.14 0.14 0.14 0.14 0.12 0.11 0.09 0.09 0.13
0.01 0.01 0.03 0.04 0.07 0.10 0.11 0.21 0.24 0.27 0.32 0.29 0.26 0.23 0.18 0.16 0.16 0.12 0.13 0.07 0.06 0.08 0.12 0.19 0.18 0.14 0.14 0.12 0.08 0.07 0.07 0.08
0.00 0.01 0.03 0.04 0.06 0.09 0.10 0.11 0.15 0.15 0.22 0.18 0.14 0.14 0.16 0.13 0.13 0.15 0.08 0.07 0.10 0.14 0.16 0.15 0.12 0.10 0.17 0.11 0.06 0.04 0.04 0.06
0.00 0.00 0.02 0.12 0.05 0.06 0.06 0.08 0.09 0.11 0.10 0.09 0.08 0.13 0.11 0.12 0.10 0.12 0.19 0.27 0.28 0.23 0.23 0.18 0.11 0.08 0.13 0.07 0.08 0.04 0.06 0.07
0.00 0.00 0.08 0.06 0.01 0.02 0.03 0.03 0.03 0.03 0.03 0.04 0.07 0.09 0.09 0.08 0.14 0.20 0.28 0.32 0.30 0.21 0.13 0.12 0.11 0.11 0.14 0.09 0.10 0.03 0.04 0.05

GFSFLT1_prec_precacc_084.txt.gz
Total_Precipitation_Accumulation
0.00 0.03 0.04 0.06 0.08 0.32 0.58 0.72 1.21 1.58 0.87 0.34 0.41 0.63 0.53 0.47 0.28 0.23 0.24 0.16 0.20 0.11 0.12 0.08 0.04 0.03 0.00 0.00 0.00 0.00 0.00 0.00
0.02 0.05 0.06 0.08 0.18 0.42 0.64 1.00 0.97 0.47 0.23 0.13 0.26 0.46 0.59 0.52 0.35 0.22 0.22 0.17 0.17 0.19 0.15 0.16 0.04 0.02 0.01 0.01 0.01 0.00 0.00 0.00
0.01 0.04 0.10 0.29 0.44 0.44 0.33 0.15 0.13 0.04 0.06 0.08 0.11 0.20 0.41 0.40 0.33 0.15 0.25 0.17 0.14 0.10 0.14 0.28 0.14 0.11 0.02 0.02 0.02 0.02 0.03 0.02
0.04 0.08 0.13 0.11 0.05 0.02 0.06 0.08 0.14 0.05 0.03 0.05 0.09 0.27 0.42 0.33 0.37 0.22 0.18 0.17 0.22 0.15 0.19 0.23 0.16 0.09 0.05 0.02 0.01 0.00 0.01 0.03
0.03 0.00 0.00 0.01 0.02 0.03 0.06 0.12 0.15 0.05 0.02 0.02 0.04 0.13 0.23 0.24 0.21 0.17 0.12 0.10 0.13 0.13 0.16 0.17 0.21 0.16 0.14 0.08 0.05 0.04 0.07 0.11
0.00 0.01 0.00 0.00 0.04 0.07 0.08 0.12 0.16 0.08 0.01 0.07 0.14 0.16 0.19 0.23 0.19 0.14 0.10 0.09 0.08 0.06 0.05 0.05 0.04 0.07 0.10 0.13 0.14 0.20 0.28 0.35
0.02 0.02 0.01 0.01 0.05 0.08 0.10 0.13 0.19 0.10 0.07 0.08 0.14 0.18 0.16 0.15 0.11 0.10 0.06 0.07 0.08 0.07 0.05 0.05 0.05 0.08 0.12 0.24 0.48 0.44 0.38 0.43
0.03 0.02 0.01 0.02 0.04 0.08 0.08 0.07 0.10 0.09 0.13 0.07 0.06 0.13 0.16 0.16 0.13 0.17 0.12 0.07 0.06 0.15 0.22 0.19 0.15 0.18 0.34 0.42 0.46 0.40 0.44 0.48
0.01 0.01 0.02 0.03 0.07 0.18 0.12 0.11 0.11 0.07 0.11 0.17 0.21 0.26 0.31 0.37 0.36 0.31 0.19 0.21 0.24 0.39 0.53 0.56 0.47 0.37 0.37 0.48 0.57 0.55 0.57 0.48
0.00 0.01 0.02 0.03 0.03 0.16 0.20 0.13 0.12 0.08 0.11 0.16 0.25 0.38 0.40 0.31 0.35 0.58 0.42 0.37 0.28 0.39 0.50 0.40 0.40 0.37 0.40 0.55 0.61 0.47 0.39 0.39
0.00 0.00 0.00 0.01 0.02 0.11 0.16 0.10 0.11 0.10 0.08 0.10 0.15 0.27 0.41 0.48 0.80 1.10 1.22 0.99 0.77 0.49 0.53 0.52 0.39 0.25 0.24 0.26 0.30 0.31 0.31 0.28
0.00 0.00 0.01 0.00 0.01 0.05 0.13 0.23 0.23 0.09 0.10 0.20 0.33 0.39 0.58 0.92 0.88 1.17 0.94 0.90 0.96 0.82 0.62 0.63 0.56 0.50 0.46 0.40 0.33 0.27 0.24 0.20
0.00 0.00 0.01 0.00 0.00 0.01 0.07 0.29 0.53 0.73 0.69 1.01 0.92 1.05 1.21 1.11 1.38 1.94 1.33 0.98 0.72 0.50 0.36 0.28 0.29 0.34 0.37 0.30 0.24 0.19 0.18 0.18
0.00 0.00 0.00 0.00 0.01 0.04 0.21 0.72 1.13 0.95 1.02 1.00 1.09 1.49 0.97 0.59 0.44 0.37 0.33 0.25 0.19 0.12 0.10 0.13 0.15 0.14 0.20 0.27 0.30 0.28 0.27 0.24
0.00 0.00 0.00 0.00 0.04 0.14 0.21 0.45 0.69 0.71 0.72 0.70 0.65 0.63 0.61 0.38 0.30 0.25 0.26 0.24 0.22 0.15 0.13 0.14 0.14 0.14 0.14 0.12 0.11 0.09 0.09 0.13
0.01 0.01 0.03 0.04 0.07 0.10 0.11 0.21 0.24 0.27 0.32 0.29 0.26 0.23 0.18 0.16 0.16 0.12 0.13 0.07 0.06 0.08 0.12 0.19 0.18 0.14 0.14 0.12 0.08 0.07 0.07 0.08
0.00 0.01 0.03 0.04 0.06 0.09 0.10 0.11 0.15 0.15 0.22 0.18 0.14 0.14 0.16 0.13 0.13 0.15 0.08 0.07 0.10 0.14 0.16 0.15 0.12 0.10 0.17 0.11 0.06 0.04 0.04 0.06
0.00 0.00 0.02 0.12 0.05 0.06 0.06 0.08 0.09 0.11 0.10 0.09 0.08 0.13 0.11 0.12 0.10 0.12 0.19 0.29 0.28 0.23 0.23 0.18 0.11 0.08 0.13 0.08 0.08 0.04 0.06 0.07
0.00 0.00 0.08 0.06 0.01 0.02 0.03 0.03 0.03 0.03 0.03 0.04 0.07 0.09 0.09 0.08 0.14 0.20 0.28 0.32 0.31 0.22 0.14 0.12 0.11 0.11 0.14 0.09 0.11 0.04 0.04 0.05

GFSFLT1_prec_precacc_087.txt.gz
Total_Precipitation_Accumulation
0.00 0.03 0.04 0.06 0.08 0.32 0.58 0.72 1.21 1.58 0.87 0.35 0.41 0.64 0.53 0.47 0.29 0.25 0.27 0.18 0.27 0.21 0.16 0.11 0.09 0.05 0.01 0.00 0.00 0.00 0.00 0.00
0.02 0.05 0.06 0.08 0.18 0.42 0.64 1.00 0.97 0.47 0.23 0.14 0.26 0.46 0.59 0.52 0.38 0.27 0.30 0.24 0.28 0.37 0.34 0.27 0.12 0.03 0.01 0.01 0.01 0.00 0.00 0.00
0.01 0.04 0.10 0.29 0.44 0.44 0.33 0.15 0.13 0.04 0.06 0.08 0.11 0.20 0.41 0.40 0.34 0.17 0.29 0.30 0.36 0.26 0.25 0.43 0.23 0.12 0.02 0.02 0.02 0.02 0.03 0.02
0.04 0.08 0.13 0.11 0.05 0.02 0.06 0.08 0.14 0.05 0.03 0.05 0.09 0.27 0.42 0.33 0.37 0.22 0.19 0.21 0.28 0.25 0.26 0.28 0.19 0.10 0.05 0.02 0.01 0.00 0.01 0.03
0.03 0.00 0.00 0.01 0.02 0.03 0.06 0.12 0.15 0.05 0.02 0.02 0.04 0.13 0.23 0.24 0.21 0.17 0.12 0.10 0.13 0.14 0.16 0.18 0.21 0.16 0.14 0.08 0.05 0.04 0.07 0.11
0.00 0.01 0.00 0.00 0.04 0.07 0.08 0.12 0.16 0.08 0.02 0.07 0.14 0.16 0.19 0.23 0.19 0.14 0.10 0.09 0.08 0.06 0.06 0.05 0.04 0.07 0.10 0.13 0.14 0.20 0.28 0.36
0.02 0.02 0.01 0.01 0.05 0.08 0.10 0.13 0.19 0.10 0.07 0.08 0.14 0.18 0.16 0.15 0.11 0.10 0.06 0.07 0.08 0.07 0.05 0.05 0.05 0.08 0.12 0.24 0.48 0.44 0.39 0.48
0.03 0.02 0.01 0.02 0.04 0.08 0.08 0.07 0.10 0.09 0.13 0.07 0.06 0.13 0.16 0.16 0.13 0.17 0.12 0.07 0.06 0.15 0.22 0.19 0.15 0.18 0.34 0.43 0.47 0.42 0.46 0.52
0.01 0.01 0.02 0.03 0.07 0.18 0.12 0.11 0.11 0.07 0.11 0.17 0.21 0.26 0.31 0.37 0.36 0.31 0.19 0.21 0.24 0.39 0.53 0.56 0.47 0.37 0.37 0.48 0.59 0.57 0.60 0.51
0.00 0.01 0.02 0.03 0.03 0.16 0.20 0.13 0.12 0.08 0.11 0.16 0.25 0.38 0.40 0.31 0.35 0.58 0.42 0.37 0.28 0.39 0.50 0.40 0.40 0.37 0.40 0.56 0.62 0.47 0.39 0.40
0.00 0.00 0.00 0.01 0.02 0.11 0.16 0.10 0.11 0.10 0.08 0.10 0.15 0.27 0.41 0.48 0.80 1.10 1.22 0.99 0.77 0.49 0.53 0.52 0.39 0.25 0.24 0.26 0.30 0.31 0.31 0.29
0.00 0.00 0.01 0.00 0.01 0.05 0.13 0.23 0.23 0.09 0.10 0.20 0.33 0.40 0.58 0.92 0.88 1.17 0.94 0.90 0.96 0.82 0.62 0.63 0.56 0.50 0.46 0.40 0.33 0.27 0.24 0.20
0.00 0.00 0.01 0.00 0.00 0.01 0.07 0.29 0.53 0.73 0.69 1.01 0.92 1.05 1.21 1.11 1.38 1.94 1.33 0.98 0.72 0.50 0.36 0.28 0.29 0.34 0.37 0.30 0.24 0.19 0.18 0.18
0.00 0.00 0.00 0.00 0.01 0.04 0.21 0.72 1.13 0.95 1.02 1.00 1.09 1.49 0.97 0.59 0.44 0.37 0.33 0.25 0.19 0.12 0.10 0.13 0.15 0.14 0.20 0.27 0.30 0.28 0.27 0.24
0.00 0.00 0.00 0.02 0.04 0.14 0.21 0.45 0.69 0.71 0.72 0.70 0.65 0.63 0.61 0.38 0.30 0.25 0.26 0.24 0.22 0.15 0.13 0.14 0.14 0.14 0.14 0.12 0.11 0.09 0.09 0.13
0.01 0.01 0.03 0.07 0.12 0.12 0.12 0.21 0.24 0.27 0.32 0.29 0.26 0.23 0.18 0.16 0.16 0.12 0.13 0.07 0.06 0.08 0.12 0.19 0.18 0.14 0.14 0.12 0.08 0.07 0.07 0.08
0.00 0.01 0.03 0.04 0.06 0.10 0.13 0.12 0.15 0.15 0.22 0.18 0.14 0.14 0.16 0.13 0.13 0.15 0.08 0.07 0.10 0.14 0.16 0.15 0.12 0.10 0.17 0.11 0.06 0.04 0.04 0.06
0.00 0.00 0.02 0.12 0.05 0.06 0.07 0.11 0.11 0.11 0.10 0.09 0.08 0.14 0.11 0.12 0.10 0.12 0.19 0.29 0.29 0.23 0.24 0.18 0.11 0.08 0.13 0.08 0.08 0.04 0.06 0.07
0.00 0.00 0.08 0.06 0.01 0.02 0.03 0.05 0.06 0.06 0.06 0.06 0.07 0.10 0.11 0.12 0.14 0.20 0.28 0.32 0.31 0.22 0.14 0.13 0.11 0.12 0.14 0.09 0.11 0.04 0.04 0.06

GFSFLT1_prec_precacc_090.txt.gz
Total_Precipitation_Accumulation
0.00 0.03 0.04 0.06 0.08 0.32 0.58 0.72 1.21 1.58 0.87 0.35 0.41 0.64 0.53 0.47 0.29 0.28 0.35 0.24 0.34 0.27 0.23 0.14 0.09 0.05 0.01 0.00 0.00 0.00 0.00 0.00
0.02 0.05 0.06 0.08 0.18 0.42 0.64 1.00 0.97 0.47 0.23 0.14 0.26 0.46 0.59 0.52 0.38 0.27 0.32 0.32 0.36 0.48 0.47 0.37 0.13 0.03 0.01 0.01 0.01 0.00 0.00 0.00
0.01 0.04 0.10 0.29 0.44 0.44 0.33 0.15 0.13 0.04 0.06 0.08 0.11 0.20 0.41 0.40 0.34 0.17 0.30 0.32 0.43 0.34 0.33 0.52 0.30 0.12 0.02 0.02 0.02 0.02 0.03 0.02
0.04 0.08 0.13 0.11 0.05 0.02 0.06 0.08 0.14 0.05 0.04 0.05 0.09 0.27 0.42 0.33 0.38 0.23 0.21 0.25 0.34 0.35 0.39 0.40 0.24 0.11 0.05 0.02 0.01 0.00 0.01 0.03
0.03 0.00 0.00 0.01 0.02 0.03 0.06 0.12 0.15 0.05 0.02 0.02 0.04 0.13 0.23 0.24 0.21 0.17 0.13 0.18 0.25 0.29 0.35 0.39 0.32 0.19 0.15 0.09 0.05 0.04 0.07 0.11
0.00 0.01 0.00 0.00 0.04 0.07 0.08 0.12 0.16 0.08 0.02 0.07 0.14 0.16 0.19 0.23 0.19 0.14 0.10 0.10 0.14 0.17 0.20 0.20 0.16 0.12 0.11 0.13 0.14 0.20 0.28 0.36
0.02 0.02 0.01 0.01 0.05 0.08 0.10 0.13 0.19 0.10 0.07 0.08 0.14 0.18 0.16 0.15 0.11 0.10 0.06 0.07 0.10 0.10 0.08 0.07 0.08 0.11 0.14 0.25 0.48 0.44 0.39 0.48
0.03 0.02 0.01 0.02 0.04 0.08 0.08 0.07 0.10 0.10 0.13 0.07 0.06 0.13 0.16 0.16 0.13 0.17 0.12 0.07 0.06 0.15 0.22 0.20 0.16 0.19 0.35 0.43 0.47 0.42 0.46 0.52
0.01 0.01 0.02 0.03 0.07 0.18 0.12 0.11 0.11 0.07 0.11 0.17 0.21 0.26 0.31 0.37 0.36 0.31 0.19 0.21 0.24 0.39 0.53 0.56 0.47 0.37 0.37 0.48 0.59 0.57 0.60 0.52
0.00 0.01 0.02 0.03 0.03 0.16 0.20 0.13 0.12 0.08 0.11 0.16 0.25 0.38 0.40 0.31 0.35 0.58 0.42 0.37 0.28 0.39 0.50 0.40 0.40 0.37 0.40 0.56 0.62 0.47 0.39 0.40
0.00 0.00 0.00 0.01 0.02 0.11 0.16 0.10 0.11 0.10 0.08 0.10 0.15 0.27 0.41 0.48 0.80 1.10 1.22 0.99 0.77 0.49 0.53 0.52 0.39 0.25 0.24 0.26 0.30 0.31 0.31 0.29
0.00 0.00 0.01 0.00 0.01 0.05 0.13 0.23 0.23 0.09 0.10 0.20 0.33 0.40 0.58 0.92 0.88 1.17 0.94 0.90 0.96 0.82 0.62 0.63 0.56 0.50 0.46 0.40 0.33 0.27 0.24 0.20
0.00 0.00 0.01 0.00 0.00 0.01 0.07 0.29 0.53 0.73 0.69 1.01 0.92 1.05 1.21 1.11 1.38 1.94 1.33 0.98 0.72 0.50 0.36 0.28 0.29 0.34 0.37 0.30 0.24 0.19 0.18 0.18
0.00 0.00 0.00 0.00 0.01 0.04 0.21 0.72 1.13 0.95 1.02 1.00 1.09 1.49 0.97 0.59 0.44 0.37 0.33 0.25 0.19 0.12 0.10 0.13 0.15 0.14 0.20 0.27 0.30 0.28 0.27 0.24
0.00 0.00 0.02 0.05 0.06 0.14 0.22 0.46 0.69 0.71 0.73 0.70 0.65 0.63 0.61 0.38 0.30 0.25 0.26 0.24 0.22 0.15 0.13 0.14 0.14 0.14 0.14 0.12 0.11 0.09 0.09 0.13
0.01 0.01 0.03 0.09 0.18 0.20 0.19 0.25 0.28 0.29 0.33 0.29 0.26 0.23 0.18 0.16 0.16 0.12 0.13 0.07 0.06 0.08 0.12 0.19 0.18 0.14 0.14 0.12 0.08 0.07 0.07 0.08
0.00 0.01 0.03 0.04 0.06 0.11 0.16 0.14 0.20 0.21 0.25 0.20 0.16 0.15 0.18 0.15 0.14 0.15 0.08 0.07 0.10 0.14 0.16 0.15 0.13 0.11 0.17 0.11 0.06 0.04 0.04 0.06
0.00 0.00 0.02 0.12 0.05 0.06 0.08 0.13 0.13 0.17 0.22 0.21 0.15 0.20 0.16 0.16 0.16 0.15 0.20 0.30 0.29 0.23 0.24 0.18 0.11 0.08 0.14 0.08 0.08 0.04 0.06 0.07
0.00 0.00 0.08 0.06 0.01 0.02 0.03 0.05 0.06 0.07 0.14 0.19 0.18 0.16 0.16 0.17 0.18 0.23 0.31 0.34 0.32 0.23 0.14 0.13 0.11 0.12 0.15 0.10 0.11 0.04 0.04 0.06

GFSFLT1_prec_precacc_096.txt.gz
Total_Precipitation_Accumulation
0.00 0.03 0.04 0.06 0.08 0.32 0.58 0.72 1.21 1.58 0.87 0.35 0.41 0.64 0.53 0.48 0.31 0.36 0.43 0.31 0.40 0.31 0.29 0.25 0.10 0.06 0.01 0.00 0.00 0.00 0.00 0.00
0.02 0.05 0.06 0.08 0.18 0.42 0.64 1.00 0.97 0.47 0.23 0.14 0.26 0.46 0.59 0.52 0.38 0.29 0.50 0.53 0.49 0.62 0.54 0.57 0.37 0.06 0.03 0.01 0.01 0.00 0.00 0.00
0.01 0.04 0.10 0.29 0.44 0.44 0.33 0.15 0.13 0.04 0.06 0.08 0.11 0.20 0.41 0.40 0.34 0.17 0.31 0.52 0.74 0.54 0.55 0.71 0.66 0.32 0.07 0.02 0.02 0.02 0.03 0.02
0.04 0.08 0.13 0.11 0.05 0.02 0.06 0.08 0.14 0.05 0.04 0.05 0.09 0.27 0.42 0.33 0.38 0.23 0.21 0.26 0.48 0.67 0.57 0.59 0.58 0.32 0.14 0.05 0.02 0.00 0.01 0.03
0.03 0.00 0.00 0.01 0.02 0.03 0.06 0.12 0.15 0.05 0.02 0.03 0.04 0.13 0.23 0.24 0.21 0.18 0.14 0.18 0.27 0.40 0.62 0.53 0.52 0.38 0.26 0.11 0.06 0.04 0.07 0.11
0.00 0.01 0.00 0.00 0.04 0.07 0.08 0.12 0.16 0.08 0.02 0.07 0.14 0.16 0.19 0.23 0.19 0.14 0.10 0.11 0.16 0.22 0.32 0.44 0.43 0.38 0.33 0.21 0.15 0.20 0.28 0.36
0.02 0.02 0.01 0.01 0.05 0.08 0.10 0.13 0.19 0.10 0.07 0.08 0.14 0.18 0.16 0.15 0.11 0.10 0.07 0.09 0.12 0.13 0.22 0.26 0.39 0.48 0.45 0.44 0.53 0.46 0.40 0.48
0.03 0.02 0.01 0.02 0.04 0.08 0.08 0.07 0.10 0.10 0.13 0.07 0.06 0.13 0.16 0.16 0.13 0.17 0.13 0.07 0.07 0.17 0.25 0.24 0.24 0.36 0.73 0.71 0.65 0.51 0.50 0.54
0.01 0.01 0.02 0.03 0.07 0.18 0.12 0.11 0.11 0.07 0.11 0.17 0.21 0.26 0.31 0.37 0.36 0.31 0.20 0.21 0.24 0.39 0.53 0.57 0.49 0.40 0.44 0.61 0.67 0.63 0.65 0.54
0.00 0.01 0.02 0.03 0.03 0.16 0.20 0.13 0.12 0.08 0.11 0.16 0.25 0.38 0.40 0.31 0.35 0.58 0.42 0.37 0.28 0.39 0.50 0.40 0.40 0.37 0.42 0.58 0.64 0.48 0.40 0.40
0.00 0.00 0.00 0.01 0.02 0.11 0.16 0.10 0.11 0.10 0.08 0.10 0.15 0.27 0.41 0.48 0.80 1.10 1.22 0.99 0.77 0.49 0.53 0.52 0.39 0.25 0.25 0.28 0.32 0.31 0.31 0.29
0.00 0.00 0.01 0.00 0.01 0.05 0.13 0.23 0.23 0.09 0.10 0.20 0.33 0.40 0.58 0.92 0.88 1.17 0.94 0.90 0.96 0.82 0.62 0.63 0.56 0.50 0.46 0.40 0.34 0.29 0.25 0.20
0.00 0.00 0.01 0.00 0.00 0.01 0.07 0.29 0.53 0.75 0.69 1.01 0.92 1.05 1.21 1.11 1.38 1.94 1.33 0.98 0.72 0.50 0.36 0.28 0.29 0.34 0.37 0.30 0.24 0.19 0.19 0.19
0.00 0.00 0.00 0.00 0.01 0.05 0.23 0.75 1.18 0.98 1.03 1.00 1.09 1.49 0.97 0.59 0.44 0.37 0.33 0.25 0.19 0.12 0.10 0.13 0.15 0.14 0.20 0.27 0.30 0.28 0.27 0.24
0.04 0.01 0.05 0.10 0.15 0.25 0.31 0.54 0.76 0.77 0.78 0.77 0.67 0.63 0.61 0.38 0.30 0.25 0.26 0.24 0.22 0.15 0.13 0.14 0.14 0.14 0.14 0.12 0.11 0.09 0.09 0.13
0.06 0.10 0.14 0.21 0.30 0.33 0.33 0.38 0.41 0.41 0.45 0.33 0.31 0.26 0.20 0.16 0.16 0.12 0.13 0.07 0.06 0.08 0.12 0.19 0.18 0.14 0.14 0.12 0.08 0.07 0.07 0.08
0.00 0.01 0.04 0.07 0.09 0.14 0.17 0.15 0.21 0.22 0.28 0.29 0.27 0.23 0.24 0.18 0.16 0.17 0.08 0.07 0.10 0.14 0.16 0.15 0.13 0.11 0.17 0.11 0.06 0.04 0.04 0.06
0.02 0.00 0.02 0.12 0.07 0.08 0.08 0.13 0.13 0.18 0.23 0.24 0.19 0.25 0.22 0.23 0.22 0.19 0.27 0.36 0.31 0.26 0.26 0.18 0.11 0.08 0.14 0.08 0.08 0.04 0.06 0.07
0.11 0.03 0.10 0.06 0.01 0.02 0.03 0.05 0.06 0.07 0.15 0.20 0.20 0.17 0.18 0.20 0.23 0.29 0.38 0.42 0.38 0.28 0.22 0.24 0.19 0.18 0.20 0.12 0.13 0.05 0.05 0.06

GFSFLT1_prec_precacc_099.txt.gz
Total_Precipitation_Accumulation
0.00 0.03 0.04 0.06 0.08 0.32 0.58 0.72 1.21 1.58 0.87 0.35 0.41 0.64 0.53 0.48 0.32 0.37 0.44 0.31 0.40 0.32 0.30 0.25 0.27 0.29 0.15 0.19 0.16 0.09 0.03 0.00
0.02 0.05 0.06 0.08 0.18 0.42 0.64 1.00 0.97 0.47 0.23 0.14 0.26 0.46 0.59 0.52 0.38 0.30 0.51 0.55 0.52 0.63 0.55 0.58 0.38 0.11 0.10 0.11 0.12 0.07 0.03 0.00
0.01 0.04 0.10 0.29 0.44 0.44 0.33 0.15 0.13 0.04 0.06 0.08 0.11 0.20 0.41 0.40 0.34 0.17 0.31 0.55 0.78 0.60 0.57 0.72 0.68 0.35 0.08 0.03 0.04 0.03 0.03 0.02
0.04 0.08 0.13 0.11 0.05 0.02 0.06 0.08 0.14 0.05 0.04 0.05 0.09 0.27 0.42 0.34 0.38 0.23 0.21 0.27 0.56 0.76 0.63 0.62 0.63 0.42 0.17 0.05 0.02 0.00 0.01 0.03
0.03 0.00 0.00 0.01 0.02 0.03 0.06 0.12 0.15 0.05 0.02 0.03 0.04 0.13 0.23 0.24 0.21 0.18 0.14 0.18 0.27 0.49 0.74 0.58 0.56 0.52 0.43 0.16 0.06 0.04 0.07 0.11
0.00 0.01 0.00 0.00 0.04 0.07 0.08 0.12 0.16 0.08 0.02 0.07 0.14 0.16 0.19 0.23 0.19 0.14 0.10 0.11 0.16 0.22 0.38 0.51 0.51 0.43 0.43 0.33 0.23 0.21 0.28 0.36
0.02 0.02 0.01 0.01 0.05 0.08 0.10 0.13 0.19 0.10 0.07 0.08 0.14 0.18 0.16 0.15 0.11 0.10 0.07 0.09 0.13 0.15 0.22 0.27 0.41 0.51 0.56 0.60 0.65 0.52 0.41 0.48
0.03 0.02 0.01 0.02 0.04 0.08 0.08 0.07 0.10 0.10 0.13 0.07 0.06 0.13 0.16 0.16 0.13 0.17 0.13 0.08 0.08 0.18 0.27 0.25 0.24 0.38 0.76 0.81 0.82 0.63 0.54 0.55
0.01 0.01 0.02 0.03 0.07 0.18 0.12 0.11 0.11 0.07 0.12 0.17 0.21 0.26 0.31 0.37 0.36 0.31 0.20 0.21 0.24 0.39 0.53 0.58 0.49 0.42 0.48 0.68 0.78 0.68 0.70 0.61
0.00 0.01 0.02 0.03 0.03 0.16 0.20 0.13 0.12 0.08 0.11 0.16 0.25 0.38 0.40 0.31 0.35 0.58 0.42 0.37 0.28 0.39 0.50 0.41 0.41 0.37 0.43 0.60 0.66 0.51 0.44 0.47
0.00 0.00 0.00 0.01 0.02 0.11 0.16 0.10 0.11 0.10 0.08 0.10 0.15 0.27 0.41 0.48 0.80 1.10 1.22 0.99 0.77 0.49 0.53 0.53 0.39 0.26 0.25 0.29 0.32 0.32 0.32 0.32
0.00 0.00 0.01 0.00 0.01 0.05 0.13 0.24 0.23 0.09 0.11 0.21 0.33 0.40 0.58 0.92 0.88 1.17 0.94 0.90 0.96 0.82 0.62 0.63 0.56 0.50 0.46 0.40 0.34 0.29 0.25 0.20
0.00 0.00 0.01 0.00 0.00 0.01 0.08 0.31 0.54 0.75 0.72 1.04 0.92 1.05 1.21 1.11 1.38 1.94 1.33 0.98 0.72 0.50 0.36 0.28 0.30 0.34 0.37 0.30 0.24 0.19 0.19 0.19
0.03 0.00 0.00 0.00 0.01 0.06 0.24 0.77 1.19 1.00 1.08 1.01 1.09 1.49 0.97 0.59 0.44 0.37 0.33 0.25 0.19 0.12 0.10 0.13 0.15 0.15 0.20 0.27 0.30 0.28 0.27 0.25
0.11 0.05 0.09 0.13 0.17 0.25 0.32 0.55 0.78 0.79 0.81 0.80 0.68 0.63 0.61 0.38 0.30 0.25 0.26 0.24 0.22 0.15 0.13 0.14 0.14 0.14 0.14 0.12 0.12 0.09 0.09 0.13
0.13 0.16 0.20 0.26 0.33 0.37 0.38 0.44 0.48 0.49 0.53 0.41 0.34 0.27 0.20 0.16 0.16 0.12 0.13 0.07 0.06 0.08 0.12 0.19 0.18 0.14 0.14 0.12 0.08 0.07 0.07 0.08
0.01 0.03 0.07 0.11 0.14 0.20 0.21 0.19 0.24 0.24 0.30 0.32 0.31 0.25 0.25 0.18 0.16 0.17 0.08 0.07 0.10 0.14 0.16 0.15 0.13 0.11 0.17 0.11 0.06 0.04 0.04 0.06
0.02 0.00 0.02 0.12 0.08 0.12 0.13 0.16 0.15 0.19 0.25 0.27 0.23 0.29 0.26 0.25 0.23 0.20 0.28 0.36 0.31 0.26 0.26 0.18 0.11 0.08 0.14 0.08 0.08 0.04 0.06 0.07
0.26 0.08 0.10 0.06 0.02 0.07 0.17 0.21 0.17 0.15 0.19 0.23 0.21 0.18 0.20 0.23 0.26 0.31 0.41 0.43 0.39 0.28 0.23 0.25 0.20 0.19 0.20 0.12 0.13 0.06 0.07 0.07

GFSFLT1_prec_precacc_102.txt.gz
Total_Precipitation_Accumulation
0.00 0.03 0.04 0.06 0.08 0.32 0.58 0.72 1.21 1.58 0.87 0.35 0.41 0.64 0.53 0.48 0.32 0.37 0.44 0.32 0.41 0.35 0.31 0.25 0.32 0.48 0.40 0.47 0.54 0.33 0.17 0.03
0.02 0.05 0.06 0.08 0.18 0.42 0.64 1.00 0.97 0.47 0.23 0.14 0.26 0.46 0.59 0.52 0.39 0.30 0.52 0.56 0.53 0.64 0.55 0.58 0.38 0.17 0.34 0.26 0.51 0.44 0.22 0.03
0.01 0.04 0.10 0.29 0.44 0.44 0.33 0.15 0.13 0.04 0.06 0.08 0.11 0.21 0.41 0.41 0.34 0.18 0.34 0.58 0.81 0.63 0.57 0.73 0.69 0.35 0.14 0.16 0.29 0.38 0.22 0.04
0.04 0.08 0.13 0.11 0.05 0.02 0.06 0.08 0.14 0.05 0.04 0.05 0.09 0.27 0.42 0.34 0.38 0.23 0.22 0.29 0.60 0.81 0.71 0.64 0.71 0.44 0.17 0.09 0.09 0.09 0.07 0.05
0.03 0.00 0.00 0.01 0.02 0.03 0.06 0.12 0.15 0.05 0.02 0.03 0.04 0.13 0.23 0.24 0.21 0.18 0.14 0.19 0.28 0.56 0.81 0.67 0.63 0.68 0.48 0.16 0.07 0.06 0.08 0.11
0.00 0.01 0.00 0.00 0.04 0.07 0.08 0.12 0.16 0.08 0.02 0.07 0.14 0.16 0.19 0.23 0.19 0.14 0.11 0.11 0.17 0.24 0.46 0.59 0.55 0.50 0.49 0.36 0.26 0.23 0.28 0.36
0.02 0.02 0.01 0.01 0.05 0.08 0.10 0.13 0.19 0.10 0.07 0.08 0.14 0.18 0.16 0.15 0.11 0.10 0.07 0.09 0.13 0.15 0.25 0.31 0.44 0.53 0.62 0.70 0.69 0.58 0.43 0.49
0.03 0.02 0.01 0.02 0.04 0.08 0.08 0.07 0.10 0.10 0.13 0.07 0.06 0.13 0.16 0.16 0.13 0.17 0.13 0.08 0.09 0.19 0.29 0.27 0.25 0.39 0.78 0.92 0.95 0.73 0.59 0.57
0.01 0.01 0.02 0.03 0.07 0.18 0.12 0.11 0.11 0.07 0.12 0.17 0.21 0.26 0.31 0.37 0.36 0.31 0.20 0.21 0.24 0.40 0.56 0.61 0.50 0.42 0.49 0.71 0.85 0.87 0.85 0.72
0.00 0.01 0.02 0.03 0.03 0.16 0.20 0.13 0.12 0.08 0.11 0.16 0.25 0.38 0.40 0.31 0.35 0.58 0.42 0.37 0.28 0.40 0.51 0.43 0.42 0.38 0.44 0.61 0.67 0.54 0.48 0.52
0.00 0.00 0.00 0.01 0.02 0.11 0.16 0.10 0.11 0.10 0.08 0.10 0.15 0.27 0.41 0.48 0.80 1.10 1.22 0.99 0.77 0.50 0.54 0.53 0.40 0.27 0.26 0.29 0.33 0.34 0.36 0.37
0.00 0.00 0.01 0.00 0.01 0.05 0.13 0.24 0.23 0.09 0.11 0.21 0.33 0.40 0.58 0.92 0.88 1.17 0.94 0.90 0.96 0.82 0.62 0.63 0.56 0.50 0.46 0.41 0.34 0.30 0.27 0.22
0.02 0.01 0.01 0.00 0.00 0.01 0.08 0.31 0.54 0.75 0.72 1.04 0.93 1.05 1.21 1.11 1.38 1.94 1.33 0.98 0.72 0.50 0.36 0.28 0.30 0.34 0.37 0.30 0.24 0.19 0.19 0.19
0.07 0.02 0.02 0.02 0.02 0.06 0.25 0.77 1.20 1.01 1.08 1.01 1.09 1.49 0.97 0.59 0.44 0.37 0.33 0.25 0.19 0.12 0.10 0.13 0.15 0.15 0.20 0.27 0.30 0.28 0.27 0.25
0.19 0.09 0.11 0.15 0.19 0.28 0.33 0.56 0.78 0.80 0.87 0.86 0.70 0.63 0.61 0.38 0.30 0.25 0.26 0.24 0.22 0.15 0.13 0.14 0.14 0.14 0.14 0.12 0.12 0.09 0.09 0.13
0.31 0.28 0.24 0.28 0.36 0.41 0.43 0.49 0.52 0.55 0.68 0.52 0.39 0.28 0.20 0.16 0.16 0.12 0.13 0.07 0.06 0.08 0.12 0.19 0.18 0.15 0.14 0.12 0.08 0.07 0.07 0.08
0.41 0.22 0.17 0.17 0.20 0.26 0.28 0.27 0.37 0.35 0.37 0.37 0.32 0.28 0.26 0.19 0.16 0.17 0.08 0.07 0.10 0.14 0.16 0.16 0.13 0.11 0.17 0.11 0.06 0.04 0.04 0.06
0.33 0.15 0.11 0.21 0.16 0.20 0.22 0.26 0.24 0.27 0.29 0.28 0.24 0.32 0.30 0.30 0.27 0.21 0.28 0.36 0.32 0.26 0.26 0.18 0.11 0.08 0.14 0.08 0.08 0.04 0.07 0.07
0.63 0.31 0.18 0.14 0.06 0.09 0.22 0.31 0.25 0.17 0.20 0.24 0.24 0.21 0.22 0.25 0.29 0.34 0.45 0.45 0.39 0.29 0.23 0.25 0.21 0.21 0.22 0.13 0.14 0.06 0.07 0.07

GFSFLT1_prec_precacc_105.txt.gz
Total_Precipitation_Accumulation
0.00 0.03 0.04 0.06 0.08 0.32 0.58 0.72 1.21 1.58 0.87 0.35 0.41 0.64 0.53 0.48 0.32 0.37 0.45 0.32 0.43 0.39 0.35 0.26 0.32 0.49 0.43 0.58 0.69 0.62 0.43 0.22
0.02 0.05 0.06 0.08 0.18 0.42 0.64 1.00 0.97 0.47 0.23 0.14 0.26 0.46 0.59 0.53 0.39 0.30 0.52 0.56 0.55 0.68 0.61 0.58 0.38 0.18 0.38 0.47 0.81 0.78 0.52 0.26
0.01 0.04 0.10 0.29 0.44 0.44 0.33 0.15 0.13 0.04 0.06 0.08 0.11 0.21 0.41 0.41 0.34 0.18 0.34 0.58 0.82 0.67 0.59 0.74 0.69 0.36 0.16 0.29 0.58 0.88 0.62 0.22
0.04 0.08 0.13 0.11 0.05 0.02 0.06 0.08 0.14 0.05 0.04 0.05 0.09 0.27 0.43 0.34 0.38 0.24 0.22 0.30 0.62 0.84 0.73 0.65 0.71 0.45 0.19 0.12 0.22 0.50 0.37 0.18
0.03 0.00 0.00 0.01 0.02 0.03 0.06 0.12 0.15 0.05 0.02 0.03 0.04 0.13 0.23 0.24 0.22 0.18 0.14 0.19 0.29 0.58 0.82 0.69 0.64 0.71 0.50 0.18 0.09 0.25 0.31 0.18
0.00 0.01 0.00 0.00 0.04 0.07 0.08 0.12 0.16 0.08 0.02 0.07 0.14 0.16 0.19 0.23 0.19 0.14 0.11 0.12 0.17 0.26 0.48 0.61 0.57 0.51 0.53 0.43 0.27 0.26 0.37 0.42
0.02 0.02 0.01 0.01 0.05 0.08 0.10 0.13 0.19 0.10 0.07 0.08 0.14 0.18 0.16 0.15 0.11 0.10 0.07 0.09 0.13 0.16 0.28 0.35 0.47 0.55 0.66 0.73 0.71 0.59 0.43 0.50
0.03 0.02 0.01 0.02 0.04 0.08 0.08 0.07 0.10 0.10 0.13 0.07 0.06 0.13 0.16 0.16 0.13 0.17 0.13 0.08 0.09 0.19 0.31 0.30 0.27 0.42 0.79 0.98 1.08 0.80 0.61 0.58
0.01 0.01 0.02 0.03 0.07 0.18 0.12 0.11 0.11 0.07 0.12 0.17 0.21 0.26 0.31 0.37 0.36 0.31 0.20 0.21 0.24 0.40 0.56 0.63 0.51 0.42 0.50 0.71 0.90 0.97 1.01 0.78
0.00 0.01 0.02 0.03 0.03 0.16 0.20 0.13 0.12 0.08 0.11 0.16 0.25 0.38 0.40 0.31 0.35 0.58 0.42 0.37 0.28 0.40 0.51 0.45 0.44 0.38 0.44 0.61 0.69 0.60 0.65 0.73
0.00 0.00 0.00 0.01 0.02 0.11 0.16 0.10 0.11 0.10 0.08 0.11 0.15 0.27 0.41 0.48 0.80 1.10 1.22 0.99 0.77 0.50 0.54 0.54 0.41 0.27 0.27 0.30 0.34 0.35 0.38 0.42
0.00 0.00 0.01 0.00 0.01 0.05 0.13 0.24 0.23 0.09 0.11 0.21 0.33 0.40 0.58 0.92 0.88 1.17 0.94 0.90 0.96 0.82 0.63 0.64 0.56 0.50 0.47 0.41 0.35 0.30 0.28 0.24
0.02 0.02 0.02 0.01 0.01 0.02 0.08 0.31 0.54 0.75 0.72 1.04 0.93 1.05 1.21 1.11 1.38 1.94 1.33 0.98 0.72 0.50 0.36 0.29 0.30 0.34 0.37 0.31 0.24 0.20 0.20 0.20
0.07 0.04 0.03 0.04 0.04 0.08 0.26 0.77 1.20 1.01 1.08 1.01 1.09 1.50 0.99 0.62 0.45 0.37 0.33 0.25 0.19 0.12 0.10 0.13 0.15 0.15 0.20 0.28 0.30 0.28 0.28 0.25
0.20 0.11 0.14 0.18 0.23 0.31 0.36 0.57 0.79 0.80 0.87 0.89 0.79 0.72 0.67 0.42 0.31 0.25 0.26 0.24 0.22 0.15 0.13 0.14 0.14 0.14 0.14 0.12 0.12 0.09 0.09 0.13
0.37 0.35 0.32 0.34 0.41 0.45 0.47 0.53 0.55 0.58 0.73 0.61 0.49 0.37 0.26 0.18 0.16 0.12 0.13 0.07 0.06 0.08 0.12 0.19 0.18 0.15 0.14 0.12 0.08 0.07 0.07 0.08
0.58 0.48 0.37 0.28 0.28 0.32 0.34 0.33 0.44 0.43 0.44 0.42 0.37 0.31 0.29 0.21 0.17 0.17 0.08 0.07 0.10 0.15 0.16 0.16 0.14 0.11 0.18 0.11 0.06 0.04 0.05 0.06
0.69 0.72 0.54 0.39 0.29 0.31 0.30 0.34 0.31 0.36 0.39 0.37 0.29 0.35 0.31 0.31 0.28 0.22 0.28 0.37 0.32 0.27 0.26 0.19 0.12 0.09 0.14 0.08 0.08 0.05 0.07 0.07
0.82 0.79 0.66 0.51 0.29 0.25 0.39 0.45 0.41 0.31 0.33 0.36 0.30 0.23 0.23 0.27 0.30 0.36 0.47 0.45 0.40 0.29 0.24 0.26 0.22 0.21 0.22 0.13 0.15 0.06 0.07 0.09

GFSFLT1_prec_precacc_111.txt.gz
Total_Precipitation_Accumulation
0.00 0.03 0.04 0.06 0.08 0.32 0.58 0.72 1.21 1.58 0.87 0.35 0.41 0.64 0.53 0.48 0.32 0.37 0.45 0.33 0.43 0.39 0.36 0.28 0.36 0.52 0.44 0.59 0.70 0.65 0.53 0.43
0.02 0.05 0.06 0.08 0.18 0.42 0.64 1.00 0.97 0.47 0.23 0.14 0.26 0.46 0.59 0.53 0.39 0.30 0.52 0.57 0.55 0.69 0.63 0.60 0.39 0.18 0.39 0.47 0.82 0.87 0.74 0.52
0.01 0.04 0.10 0.29 0.44 0.44 0.33 0.15 0.13 0.04 0.06 0.08 0.11 0.21 0.41 0.41 0.34 0.18 0.34 0.59 0.83 0.69 0.61 0.74 0.69 0.36 0.17 0.30 0.62 1.05 0.92 0.60
0.04 0.08 0.13 0.11 0.05 0.02 0.06 0.08 0.14 0.05 0.04 0.05 0.09 0.27 0.43 0.34 0.38 0.24 0.22 0.30 0.63 0.85 0.75 0.65 0.71 0.45 0.19 0.12 0.24 0.67 0.68 0.65
0.03 0.00 0.00 0.01 0.02 0.03 0.06 0.12 0.15 0.05 0.02 0.03 0.04 0.13 0.23 0.24 0.22 0.18 0.14 0.19 0.30 0.59 0.84 0.69 0.64 0.71 0.50 0.18 0.10 0.31 0.57 0.57
0.00 0.01 0.00 0.00 0.04 0.07 0.08 0.13 0.19 0.09 0.02 0.07 0.14 0.16 0.19 0.23 0.19 0.14 0.11 0.12 0.17 0.27 0.49 0.61 0.57 0.51 0.53 0.43 0.27 0.28 0.52 0.67
0.02 0.02 0.01 0.01 0.05 0.08 0.10 0.13 0.22 0.16 0.08 0.08 0.14 0.18 0.16 0.15 0.11 0.10 0.07 0.09 0.13 0.16 0.29 0.35 0.47 0.55 0.66 0.73 0.71 0.59 0.47 0.62
0.03 0.02 0.01 0.02 0.04 0.08 0.08 0.07 0.10 0.12 0.14 0.07 0.06 0.13 0.16 0.16 0.13 0.17 0.13 0.08 0.09 0.20 0.32 0.31 0.28 0.42 0.80 0.98 1.09 0.80 0.61 0.61
0.01 0.01 0.02 0.03 0.07 0.18 0.12 0.11 0.11 0.07 0.13 0.17 0.21 0.26 0.32 0.38 0.36 0.31 0.20 0.21 0.24 0.40 0.57 0.65 0.52 0.42 0.50 0.72 0.91 0.99 1.04 0.81
0.00 0.01 0.02 0.03 0.03 0.16 0.20 0.13 0.12 0.08 0.11 0.16 0.26 0.42 0.44 0.31 0.35 0.58 0.42 0.37 0.28 0.40 0.51 0.46 0.46 0.39 0.44 0.62 0.69 0.61 0.67 0.78
0.00 0.00 0.00 0.01 0.02 0.11 0.16 0.10 0.11 0.10 0.08 0.11 0.19 0.32 0.43 0.51 0.81 1.10 1.22 0.99 0.77 0.50 0.54 0.55 0.44 0.28 0.27 0.30 0.34 0.35 0.41 0.49
0.00 0.00 0.01 0.00 0.01 0.06 0.16 0.25 0.25 0.10 0.12 0.27 0.41 0.44 0.63 0.99 0.91 1.18 0.94 0.90 0.96 0.82 0.63 0.64 0.58 0.51 0.47 0.42 0.35 0.30 0.29 0.26
0.02 0.02 0.02 0.01 0.01 0.06 0.15 0.36 0.60 0.83 0.81 1.17 1.04 1.17 1.38 1.25 1.42 1.95 1.34 1.00 0.76 0.51 0.36 0.29 0.30 0.35 0.38 0.31 0.25 0.20 0.20 0.21
0.07 0.04 0.03 0.04 0.05 0.11 0.29 0.84 1.25 1.03 1.14 1.15 1.23 1.67 1.22 0.81 0.55 0.39 0.39 0.33 0.23 0.12 0.10 0.14 0.16 0.15 0.21 0.28 0.31 0.29 0.28 0.25
0.20 0.11 0.14 0.20 0.25 0.35 0.44 0.65 0.86 0.86 0.90 0.93 0.86 0.84 0.85 0.62 0.44 0.29 0.35 0.33 0.27 0.16 0.14 0.14 0.14 0.15 0.15 0.13 0.13 0.11 0.10 0.14
0.37 0.35 0.32 0.37 0.45 0.52 0.56 0.62 0.64 0.66 0.82 0.70 0.55 0.46 0.43 0.40 0.27 0.18 0.21 0.13 0.10 0.09 0.12 0.20 0.19 0.15 0.15 0.12 0.09 0.08 0.09 0.09
0.59 0.48 0.38 0.37 0.37 0.43 0.47 0.45 0.54 0.54 0.55 0.54 0.53 0.48 0.54 0.49 0.31 0.27 0.12 0.09 0.12 0.16 0.17 0.17 0.15 0.12 0.20 0.12 0.07 0.05 0.05 0.07
0.74 0.78 0.69 0.69 0.59 0.58 0.55 0.56 0.49 0.49 0.51 0.51 0.45 0.54 0.50 0.54 0.42 0.31 0.33 0.39 0.33 0.28 0.28 0.20 0.13 0.09 0.15 0.09 0.09 0.06 0.11 0.11
0.90 0.89 0.86 0.85 0.72 0.68 0.77 0.79 0.71 0.53 0.50 0.51 0.46 0.44 0.52 0.54 0.47 0.46 0.54 0.50 0.42 0.31 0.25 0.27 0.23 0.23 0.24 0.14 0.16 0.08 0.09 0.12

GFSFLT1_prec_precacc_114.txt.gz
Total_Precipitation_Accumulation
0.00 0.03 0.04 0.06 0.08 0.32 0.58 0.72 1.21 1.58 0.87 0.35 0.41 0.64 0.53 0.48 0.32 0.37 0.45 0.33 0.43 0.39 0.36 0.28 0.36 0.52 0.44 0.59 0.70 0.65 0.54 0.44
0.02 0.05 0.06 0.08 0.18 0.42 0.64 1.00 0.97 0.47 0.24 0.15 0.26 0.46 0.59 0.53 0.39 0.30 0.52 0.57 0.55 0.69 0.63 0.60 0.39 0.19 0.39 0.48 0.83 0.88 0.75 0.53
0.01 0.04 0.10 0.29 0.44 0.44 0.33 0.15 0.13 0.04 0.06 0.09 0.16 0.22 0.41 0.41 0.34 0.18 0.34 0.59 0.83 0.69 0.61 0.74 0.69 0.36 0.17 0.31 0.63 1.07 0.94 0.62
0.04 0.08 0.13 0.11 0.05 0.02 0.06 0.08 0.14 0.05 0.04 0.11 0.17 0.33 0.46 0.35 0.38 0.24 0.22 0.30 0.63 0.85 0.75 0.65 0.71 0.45 0.19 0.12 0.24 0.68 0.68 0.66
0.03 0.00 0.00 0.01 0.02 0.03 0.06 0.12 0.15 0.05 0.02 0.03 0.05 0.13 0.23 0.24 0.22 0.18 0.14 0.19 0.30 0.59 0.84 0.69 0.64 0.71 0.50 0.18 0.10 0.31 0.57 0.58
0.00 0.01 0.00 0.00 0.04 0.07 0.08 0.15 0.28 0.20 0.10 0.11 0.16 0.17 0.19 0.23 0.19 0.14 0.11 0.12 0.17 0.27 0.49 0.61 0.57 0.51 0.53 0.43 0.27 0.28 0.52 0.67
0.02 0.02 0.01 0.01 0.05 0.08 0.10 0.13 0.24 0.26 0.19 0.22 0.26 0.25 0.17 0.15 0.11 0.10 0.07 0.10 0.13 0.16 0.29 0.35 0.47 0.55 0.66 0.73 0.71 0.59 0.47 0.63
0.03 0.02 0.01 0.02 0.04 0.08 0.08 0.07 0.10 0.12 0.16 0.10 0.08 0.15 0.19 0.17 0.13 0.17 0.13 0.10 0.09 0.20 0.32 0.31 0.28 0.42 0.80 0.98 1.10 0.81 0.62 0.61
0.01 0.01 0.02 0.03 0.07 0.18 0.12 0.11 0.11 0.07 0.13 0.17 0.21 0.27 0.35 0.38 0.36 0.31 0.20 0.22 0.26 0.40 0.57 0.65 0.52 0.42 0.50 0.72 0.91 0.99 1.04 0.81
0.00 0.01 0.02 0.03 0.03 0.16 0.20 0.13 0.12 0.08 0.11 0.16 0.26 0.42 0.45 0.33 0.36 0.58 0.43 0.38 0.28 0.40 0.51 0.46 0.46 0.39 0.44 0.62 0.70 0.61 0.68 0.78
0.00 0.00 0.00 0.01 0.02 0.11 0.16 0.10 0.11 0.10 0.08 0.11 0.20 0.32 0.45 0.55 0.82 1.10 1.23 1.00 0.77 0.50 0.54 0.55 0.44 0.28 0.27 0.30 0.34 0.36 0.41 0.49
0.00 0.00 0.01 0.00 0.01 0.06 0.16 0.25 0.25 0.10 0.13 0.29 0.44 0.46 0.68 1.06 0.95 1.19 0.96 0.92 0.98 0.85 0.63 0.64 0.58 0.52 0.47 0.42 0.35 0.30 0.29 0.26
0.02 0.02 0.02 0.01 0.01 0.06 0.15 0.36 0.60 0.83 0.82 1.22 1.10 1.25 1.49 1.34 1.52 2.00 1.36 1.02 0.78 0.52 0.37 0.29 0.31 0.36 0.38 0.31 0.25 0.20 0.20 0.21
0.07 0.04 0.03 0.04 0.05 0.11 0.29 0.84 1.25 1.04 1.14 1.18 1.31 1.75 1.35 0.98 0.72 0.49 0.45 0.40 0.28 0.15 0.13 0.15 0.16 0.16 0.22 0.29 0.31 0.30 0.28 0.25
0.20 0.11 0.14 0.20 0.25 0.35 0.44 0.65 0.86 0.86 0.90 0.93 0.90 0.91 0.97 0.79 0.64 0.43 0.47 0.42 0.31 0.18 0.15 0.16 0.15 0.16 0.16 0.15 0.15 0.12 0.10 0.14
0.37 0.35 0.32 0.37 0.45 0.52 0.56 0.63 0.66 0.67 0.84 0.72 0.57 0.48 0.49 0.52 0.44 0.33 0.31 0.22 0.16 0.14 0.15 0.21 0.20 0.16 0.17 0.16 0.11 0.10 0.09 0.10
0.59 0.48 0.38 0.37 0.37 0.43 0.47 0.46 0.56 0.56 0.58 0.56 0.56 0.50 0.56 0.58 0.44 0.45 0.27 0.19 0.17 0.19 0.20 0.18 0.16 0.12 0.22 0.14 0.10 0.07 0.07 0.08
0.74 0.78 0.70 0.70 0.60 0.58 0.55 0.57 0.52 0.54 0.54 0.52 0.46 0.57 0.59 0.64 0.58 0.48 0.50 0.51 0.39 0.31 0.30 0.21 0.13 0.09 0.16 0.10 0.10 0.07 0.12 0.11
0.90 0.89 0.86 0.86 0.73 0.68 0.77 0.80 0.79 0.68 0.62 0.57 0.50 0.50 0.62 0.76 0.71 0.69 0.75 0.66 0.48 0.33 0.26 0.27 0.23 0.24 0.26 0.15 0.17 0.08 0.10 0.12

GFSFLT1_prec_precacc_117.txt.gz
Total_Precipitation_Accumulation
0.00 0.03 0.04 0.06 0.08 0.32 0.58 0.72 1.21 1.58 0.87 0.35 0.41 0.64 0.53 0.48 0.32 0.37 0.45 0.33 0.43 0.39 0.36 0.28 0.36 0.52 0.44 0.59 0.70 0.65 0.54 0.44
0.02 0.05 0.06 0.08 0.18 0.42 0.64 1.00 0.97 0.47 0.24 0.15 0.27 0.47 0.59 0.53 0.39 0.30 0.52 0.57 0.55 0.69 0.63 0.60 0.39 0.19 0.39 0.48 0.84 0.89 0.76 0.54
0.01 0.04 0.10 0.29 0.44 0.44 0.33 0.15 0.13 0.04 0.06 0.10 0.16 0.24 0.44 0.47 0.38 0.18 0.34 0.59 0.83 0.69 0.61 0.74 0.69 0.36 0.17 0.31 0.64 1.09 0.97 0.64
0.04 0.08 0.13 0.11 0.05 0.02 0.06 0.08 0.14 0.05 0.04 0.12 0.18 0.37 0.56 0.48 0.43 0.24 0.22 0.30 0.63 0.85 0.75 0.65 0.71 0.45 0.19 0.12 0.24 0.69 0.70 0.68
0.03 0.00 0.00 0.01 0.02 0.03 0.06 0.12 0.15 0.06 0.05 0.04 0.07 0.14 0.23 0.24 0.22 0.18 0.14 0.19 0.30 0.59 0.84 0.69 0.64 0.71 0.51 0.18 0.11 0.31 0.58 0.60
0.00 0.01 0.00 0.00 0.04 0.07 0.08 0.15 0.28 0.21 0.12 0.14 0.20 0.24 0.24 0.24 0.19 0.14 0.11 0.13 0.17 0.27 0.49 0.61 0.57 0.51 0.53 0.43 0.27 0.29 0.53 0.68
0.02 0.02 0.01 0.01 0.05 0.08 0.10 0.13 0.24 0.27 0.22 0.26 0.31 0.33 0.27 0.24 0.16 0.13 0.09 0.14 0.16 0.17 0.29 0.35 0.47 0.55 0.66 0.73 0.71 0.59 0.47 0.64
0.03 0.02 0.01 0.02 0.04 0.08 0.08 0.07 0.10 0.13 0.17 0.13 0.10 0.18 0.22 0.20 0.18 0.23 0.18 0.13 0.11 0.20 0.33 0.31 0.28 0.42 0.80 0.98 1.10 0.81 0.62 0.61
0.01 0.01 0.02 0.03 0.07 0.18 0.12 0.11 0.11 0.07 0.13 0.18 0.21 0.28 0.36 0.40 0.37 0.32 0.21 0.23 0.27 0.41 0.58 0.66 0.52 0.42 0.50 0.72 0.92 1.00 1.04 0.81
0.00 0.01 0.02 0.03 0.03 0.16 0.20 0.13 0.12 0.08 0.11 0.16 0.26 0.42 0.46 0.35 0.38 0.60 0.45 0.40 0.30 0.41 0.52 0.46 0.47 0.40 0.44 0.62 0.70 0.61 0.68 0.79
0.00 0.00 0.00 0.01 0.02 0.11 0.16 0.10 0.11 0.11 0.09 0.11 0.20 0.32 0.45 0.56 0.86 1.11 1.24 1.03 0.82 0.52 0.55 0.56 0.45 0.28 0.27 0.30 0.35 0.36 0.41 0.50
0.00 0.00 0.01 0.00 0.01 0.06 0.16 0.25 0.25 0.12 0.14 0.30 0.44 0.46 0.69 1.07 0.98 1.23 1.00 0.99 1.06 0.90 0.65 0.65 0.58 0.52 0.47 0.42 0.35 0.31 0.30 0.26
0.02 0.02 0.02 0.01 0.01 0.06 0.15 0.36 0.62 0.84 0.83 1.23 1.11 1.27 1.51 1.37 1.56 2.04 1.42 1.09 0.87 0.59 0.42 0.31 0.31 0.36 0.38 0.31 0.26 0.21 0.21 0.21
0.07 0.04 0.03 0.04 0.05 0.11 0.29 0.84 1.25 1.04 1.14 1.19 1.33 1.77 1.37 1.02 0.78 0.56 0.52 0.48 0.41 0.27 0.20 0.20 0.19 0.17 0.22 0.30 0.32 0.31 0.29 0.26
0.20 0.11 0.14 0.20 0.25 0.35 0.44 0.65 0.86 0.86 0.90 0.93 0.91 0.94 1.02 0.84 0.73 0.54 0.58 0.55 0.46 0.32 0.26 0.24 0.24 0.19 0.17 0.15 0.16 0.14 0.11 0.15
0.37 0.35 0.32 0.37 0.45 0.52 0.56 0.63 0.66 0.68 0.84 0.72 0.57 0.49 0.51 0.57 0.54 0.43 0.40 0.34 0.29 0.26 0.24 0.26 0.22 0.18 0.18 0.16 0.12 0.11 0.11 0.11
0.59 0.48 0.38 0.37 0.37 0.43 0.47 0.46 0.56 0.57 0.59 0.57 0.56 0.51 0.57 0.59 0.47 0.48 0.32 0.28 0.32 0.37 0.33 0.27 0.18 0.14 0.23 0.15 0.11 0.08 0.08 0.09
0.74 0.78 0.70 0.70 0.60 0.58 0.55 0.57 0.52 0.54 0.55 0.53 0.47 0.57 0.60 0.65 0.62 0.59 0.62 0.67 0.64 0.54 0.46 0.30 0.14 0.10 0.17 0.11 0.11 0.08 0.13 0.13
0.90 0.89 0.86 0.86 0.73 0.68 0.77 0.80 0.79 0.68 0.63 0.59 0.52 0.51 0.64 0.78 0.75 0.75 0.94 0.93 0.76 0.63 0.52 0.38 0.27 0.25 0.27 0.16 0.19 0.08 0.10 0.13

GFSFLT1_prec_precacc_123.txt.gz
Total_Precipitation_Accumulation
0.00 0.03 0.04 0.06 0.08 0.32 0.58 0.72 1.21 1.58 0.87 0.36 0.42 0.65 0.54 0.49 0.32 0.37 0.45 0.33 0.43 0.39 0.36 0.28 0.36 0.52 0.44 0.59 0.70 0.65 0.54 0.44
0.02 0.05 0.06 0.08 0.18 0.42 0.64 1.00 0.97 0.47 0.24 0.15 0.28 0.47 0.61 0.54 0.39 0.30 0.52 0.57 0.55 0.69 0.63 0.60 0.39 0.19 0.39 0.49 0.85 0.89 0.77 0.55
0.01 0.04 0.10 0.29 0.44 0.44 0.33 0.15 0.13 0.05 0.06 0.10 0.17 0.25 0.45 0.48 0.39 0.18 0.35 0.59 0.83 0.69 0.61 0.74 0.69 0.36 0.18 0.32 0.66 1.10 0.99 0.66
0.04 0.08 0.13 0.11 0.05 0.02 0.06 0.08 0.14 0.05 0.04 0.13 0.23 0.39 0.57 0.49 0.45 0.25 0.23 0.31 0.63 0.85 0.75 0.65 0.71 0.46 0.19 0.12 0.25 0.69 0.71 0.70
0.03 0.00 0.00 0.01 0.02 0.03 0.06 0.12 0.15 0.06 0.05 0.04 0.07 0.15 0.24 0.24 0.23 0.20 0.19 0.24 0.32 0.60 0.84 0.69 0.64 0.71 0.51 0.18 0.11 0.32 0.59 0.60
0.00 0.01 0.00 0.00 0.04 0.07 0.08 0.15 0.28 0.21 0.12 0.15 0.21 0.24 0.25 0.27 0.21 0.15 0.16 0.23 0.33 0.35 0.54 0.65 0.59 0.53 0.54 0.43 0.28 0.29 0.54 0.69
0.02 0.02 0.01 0.01 0.05 0.08 0.10 0.13 0.24 0.27 0.23 0.27 0.33 0.35 0.30 0.24 0.16 0.14 0.14 0.32 0.33 0.32 0.46 0.52 0.64 0.67 0.71 0.73 0.71 0.60 0.47 0.65
0.04 0.02 0.01 0.02 0.04 0.08 0.08 0.07 0.11 0.13 0.18 0.15 0.12 0.21 0.24 0.21 0.19 0.25 0.29 0.35 0.24 0.28 0.41 0.40 0.32 0.44 0.81 0.99 1.10 0.81 0.62 0.62
0.02 0.01 0.03 0.03 0.07 0.18 0.12 0.12 0.13 0.09 0.15 0.21 0.23 0.31 0.39 0.42 0.38 0.37 0.28 0.41 0.37 0.49 0.65 0.71 0.54 0.45 0.53 0.75 0.96 1.01 1.05 0.82
0.00 0.02 0.03 0.04 0.04 0.17 0.21 0.15 0.13 0.09 0.12 0.18 0.29 0.45 0.48 0.36 0.42 0.68 0.48 0.44 0.41 0.54 0.58 0.50 0.50 0.45 0.50 0.67 0.74 0.64 0.69 0.80
0.04 0.01 0.01 0.02 0.03 0.12 0.16 0.11 0.12 0.11 0.09 0.11 0.20 0.33 0.45 0.57 0.88 1.14 1.27 1.13 0.94 0.62 0.62 0.60 0.47 0.31 0.33 0.34 0.37 0.39 0.43 0.52
0.23 0.10 0.02 0.01 0.01 0.07 0.16 0.26 0.26 0.12 0.14 0.30 0.44 0.46 0.69 1.07 0.98 1.25 1.07 1.07 1.19 1.01 0.78 0.74 0.62 0.57 0.53 0.47 0.37 0.33 0.31 0.28
0.44 0.33 0.24 0.04 0.02 0.06 0.16 0.36 0.62 0.85 0.84 1.24 1.12 1.27 1.51 1.38 1.57 2.07 1.46 1.12 0.92 0.71 0.58 0.42 0.37 0.41 0.43 0.37 0.28 0.23 0.23 0.23
0.41 0.25 0.22 0.12 0.07 0.11 0.30 0.84 1.25 1.04 1.15 1.20 1.34 1.79 1.39 1.04 0.81 0.59 0.57 0.53 0.47 0.36 0.30 0.28 0.26 0.24 0.28 0.34 0.39 0.33 0.31 0.28
0.33 0.32 0.32 0.33 0.27 0.35 0.44 0.65 0.86 0.86 0.90 0.93 0.91 0.94 1.04 0.86 0.76 0.57 0.62 0.60 0.53 0.42 0.37 0.36 0.37 0.31 0.26 0.24 0.22 0.17 0.15 0.17
0.39 0.36 0.35 0.42 0.46 0.52 0.56 0.63 0.66 0.68 0.84 0.72 0.57 0.49 0.52 0.58 0.58 0.49 0.47 0.43 0.40 0.36 0.33 0.38 0.39 0.37 0.37 0.28 0.18 0.15 0.16 0.15
0.59 0.49 0.39 0.38 0.38 0.43 0.47 0.46 0.56 0.57 0.59 0.57 0.56 0.51 0.57 0.59 0.47 0.49 0.34 0.31 0.38 0.51 0.62 0.66 0.57 0.40 0.45 0.27 0.18 0.11 0.10 0.13
0.75 0.80 0.72 0.72 0.61 0.58 0.56 0.57 0.52 0.54 0.55 0.53 0.47 0.57 0.60 0.65 0.62 0.59 0.62 0.68 0.66 0.57 0.57 0.57 0.73 0.79 0.86 0.74 0.61 0.40 0.38 0.33
0.90 0.91 0.88 0.87 0.73 0.69 0.77 0.80 0.79 0.68 0.63 0.60 0.52 0.52 0.64 0.78 0.75 0.76 0.94 0.94 0.81 0.73 0.70 0.62 0.48 0.53 0.67 0.66 0.76 0.71 0.78 0.68

GFSFLT1_prec_precacc_126.txt.gz
Total_Precipitation_Accumulation
0.00 0.03 0.04 0.06 0.08 0.32 0.58 0.72 1.21 1.58 0.87 0.36 0.42 0.65 0.54 0.49 0.32 0.37 0.45 0.33 0.43 0.40 0.36 0.28 0.36 0.52 0.44 0.59 0.70 0.65 0.54 0.44
0.02 0.05 0.06 0.08 0.18 0.42 0.64 1.00 0.97 0.47 0.24 0.15 0.28 0.47 0.61 0.54 0.39 0.30 0.52 0.57 0.55 0.69 0.63 0.60 0.39 0.19 0.39 0.49 0.85 0.90 0.77 0.55
0.01 0.04 0.10 0.29 0.44 0.44 0.33 0.15 0.13 0.05 0.06 0.10 0.17 0.25 0.45 0.49 0.39 0.19 0.35 0.59 0.83 0.69 0.61 0.74 0.69 0.36 0.18 0.32 0.66 1.10 0.99 0.67
0.04 0.08 0.13 0.11 0.05 0.02 0.06 0.08 0.14 0.06 0.04 0.13 0.24 0.39 0.57 0.49 0.45 0.25 0.23 0.31 0.63 0.85 0.75 0.65 0.71 0.46 0.19 0.12 0.25 0.69 0.71 0.70
0.03 0.00 0.00 0.01 0.02 0.03 0.06 0.13 0.16 0.07 0.09 0.12 0.10 0.15 0.24 0.24 0.23 0.21 0.19 0.25 0.32 0.60 0.84 0.69 0.64 0.71 0.51 0.18 0.11 0.32 0.59 0.61
0.01 0.01 0.00 0.00 0.04 0.07 0.08 0.15 0.28 0.21 0.17 0.37 0.34 0.27 0.26 0.27 0.21 0.15 0.16 0.24 0.34 0.35 0.55 0.66 0.61 0.56 0.57 0.44 0.28 0.30 0.54 0.70
0.05 0.04 0.02 0.02 0.07 0.09 0.10 0.13 0.24 0.27 0.23 0.30 0.53 0.48 0.31 0.25 0.16 0.14 0.15 0.32 0.34 0.34 0.47 0.55 0.69 0.77 0.77 0.76 0.72 0.60 0.48 0.65
0.10 0.07 0.04 0.05 0.08 0.13 0.11 0.09 0.11 0.13 0.18 0.15 0.12 0.22 0.24 0.21 0.20 0.27 0.31 0.37 0.24 0.28 0.46 0.47 0.37 0.48 0.83 0.99 1.11 0.82 0.62 0.62
0.10 0.09 0.07 0.05 0.09 0.23 0.14 0.14 0.14 0.10 0.15 0.21 0.24 0.33 0.40 0.44 0.40 0.39 0.31 0.43 0.40 0.53 0.68 0.82 0.68 0.53 0.54 0.76 0.96 1.03 1.06 0.82
0.12 0.11 0.11 0.10 0.09 0.20 0.24 0.17 0.16 0.12 0.15 0.20 0.30 0.47 0.51 0.39 0.44 0.70 0.51 0.47 0.44 0.58 0.63 0.57 0.64 0.54 0.54 0.69 0.76 0.67 0.71 0.81
0.18 0.10 0.07 0.04 0.07 0.15 0.19 0.16 0.16 0.15 0.12 0.12 0.21 0.33 0.45 0.57 0.89 1.15 1.29 1.14 0.97 0.65 0.64 0.66 0.54 0.38 0.37 0.37 0.39 0.40 0.44 0.54
0.51 0.24 0.15 0.06 0.02 0.09 0.18 0.28 0.28 0.13 0.15 0.31 0.44 0.46 0.69 1.07 0.98 1.25 1.07 1.07 1.20 1.04 0.81 0.79 0.65 0.59 0.54 0.49 0.39 0.34 0.32 0.31
0.89 0.64 0.43 0.12 0.03 0.07 0.16 0.37 0.64 0.86 0.85 1.25 1.13 1.28 1.51 1.38 1.57 2.07 1.46 1.12 0.92 0.72 0.62 0.48 0.44 0.46 0.46 0.38 0.29 0.23 0.25 0.28
0.63 0.48 0.52 0.49 0.22 0.17 0.32 0.86 1.27 1.11 1.20 1.21 1.35 1.80 1.39 1.04 0.81 0.59 0.57 0.53 0.47 0.36 0.31 0.30 0.30 0.30 0.34 0.39 0.44 0.40 0.37 0.34
0.41 0.48 0.52 0.60 0.59 0.53 0.53 0.69 0.91 0.89 0.92 0.94 0.91 0.94 1.04 0.86 0.76 0.57 0.63 0.61 0.54 0.43 0.40 0.38 0.39 0.35 0.30 0.28 0.26 0.21 0.19 0.23
0.40 0.38 0.41 0.58 0.65 0.64 0.63 0.65 0.67 0.68 0.84 0.72 0.57 0.49 0.52 0.58 0.58 0.49 0.48 0.44 0.41 0.37 0.36 0.42 0.42 0.38 0.39 0.29 0.18 0.16 0.18 0.18
0.60 0.49 0.39 0.38 0.38 0.44 0.47 0.46 0.56 0.57 0.59 0.57 0.56 0.51 0.57 0.59 0.47 0.49 0.34 0.31 0.38 0.52 0.64 0.69 0.59 0.42 0.51 0.28 0.19 0.12 0.11 0.14
0.76 0.81 0.73 0.72 0.61 0.59 0.56 0.57 0.52 0.54 0.55 0.53 0.47 0.57 0.60 0.65 0.62 0.59 0.62 0.68 0.66 0.57 0.59 0.63 0.80 0.92 1.03 0.88 0.74 0.51 0.49 0.49
0.91 0.91 0.88 0.87 0.73 0.69 0.77 0.80 0.79 0.68 0.63 0.60 0.52 0.52 0.64 0.78 0.75 0.76 0.94 0.94 0.81 0.73 0.70 0.62 0.48 0.53 0.68 0.69 0.88 0.92 1.02 0.91

GFSFLT1_prec_precacc_129.txt.gz
Total_Precipitation_Accumulation
0.00 0.03 0.04 0.06 0.08 0.32 0.58 0.72 1.21 1.58 0.88 0.38 0.42 0.65 0.54 0.49 0.32 0.37 0.45 0.33 0.43 0.40 0.37 0.28 0.36 0.52 0.45 0.60 0.70 0.66 0.54 0.45
0.02 0.05 0.06 0.08 0.18 0.42 0.64 1.00 0.97 0.47 0.25 0.18 0.29 0.47 0.61 0.54 0.39 0.30 0.52 0.57 0.55 0.69 0.63 0.60 0.39 0.19 0.39 0.49 0.85 0.90 0.77 0.56
0.01 0.04 0.10 0.29 0.44 0.44 0.33 0.15 0.13 0.05 0.06 0.10 0.18 0.25 0.45 0.49 0.39 0.19 0.35 0.59 0.83 0.69 0.61 0.74 0.69 0.36 0.18 0.32 0.66 1.10 0.99 0.67
0.04 0.08 0.13 0.11 0.05 0.02 0.06 0.08 0.14 0.07 0.05 0.15 0.25 0.40 0.57 0.49 0.45 0.25 0.23 0.31 0.63 0.85 0.75 0.65 0.71 0.46 0.19 0.12 0.25 0.69 0.71 0.70
0.03 0.01 0.00 0.01 0.02 0.03 0.06 0.13 0.16 0.10 0.20 0.33 0.22 0.18 0.24 0.24 0.23 0.21 0.19 0.25 0.32 0.60 0.84 0.69 0.64 0.71 0.51 0.18 0.11 0.32 0.60 0.61
0.02 0.02 0.01 0.00 0.04 0.08 0.08 0.15 0.28 0.21 0.21 0.55 0.62 0.50 0.35 0.31 0.23 0.17 0.17 0.24 0.34 0.35 0.55 0.66 0.61 0.56 0.58 0.44 0.28 0.30 0.55 0.70
0.06 0.06 0.04 0.04 0.09 0.12 0.11 0.13 0.24 0.27 0.24 0.38 0.69 1.03 1.23 1.07 0.77 0.32 0.17 0.35 0.37 0.35 0.48 0.55 0.69 0.78 0.78 0.77 0.72 0.60 0.48 0.65
0.12 0.09 0.08 0.08 0.12 0.20 0.20 0.13 0.12 0.14 0.19 0.19 0.22 0.39 0.58 0.91 1.33 1.31 0.51 0.39 0.25 0.29 0.47 0.49 0.38 0.49 0.84 1.00 1.12 0.82 0.63 0.63
0.12 0.13 0.12 0.10 0.15 0.31 0.29 0.26 0.23 0.12 0.16 0.24 0.33 0.40 0.47 0.55 0.58 0.70 0.43 0.46 0.41 0.55 0.71 0.83 0.71 0.56 0.56 0.77 0.98 1.04 1.07 0.82
0.18 0.17 0.21 0.21 0.17 0.30 0.40 0.32 0.27 0.21 0.20 0.22 0.33 0.52 0.53 0.42 0.47 0.75 0.55 0.48 0.45 0.59 0.65 0.59 0.69 0.62 0.61 0.72 0.79 0.68 0.73 0.82
0.32 0.24 0.24 0.21 0.20 0.24 0.32 0.29 0.26 0.22 0.20 0.20 0.28 0.38 0.48 0.60 0.91 1.18 1.32 1.16 0.98 0.66 0.65 0.69 0.58 0.43 0.41 0.40 0.41 0.43 0.46 0.55
0.77 0.45 0.35 0.30 0.21 0.16 0.27 0.35 0.35 0.20 0.20 0.34 0.47 0.49 0.72 1.09 0.99 1.25 1.07 1.07 1.20 1.04 0.82 0.80 0.67 0.62 0.58 0.51 0.43 0.37 0.36 0.33
1.15 0.87 0.68 0.55 0.16 0.12 0.21 0.42 0.68 0.90 0.92 1.28 1.16 1.28 1.52 1.38 1.57 2.07 1.46 1.12 0.92 0.72 0.62 0.51 0.46 0.48 0.48 0.41 0.32 0.27 0.28 0.30
0.82 0.70 0.73 0.81 0.38 0.26 0.35 0.88 1.28 1.12 1.21 1.22 1.36 1.82 1.41 1.05 0.82 0.59 0.57 0.53 0.47 0.37 0.31 0.31 0.32 0.33 0.37 0.44 0.49 0.44 0.41 0.37
0.46 0.55 0.64 0.88 0.87 0.74 0.67 0.75 0.93 0.93 1.05 0.99 0.94 0.96 1.06 0.89 0.78 0.59 0.63 0.62 0.55 0.45 0.42 0.41 0.42 0.38 0.32 0.30 0.28 0.24 0.24 0.31
0.40 0.38 0.42 0.63 0.78 0.80 0.83 0.79 0.74 0.76 0.92 0.80 0.58 0.49 0.52 0.59 0.59 0.50 0.49 0.45 0.42 0.39 0.39 0.46 0.47 0.44 0.45 0.33 0.21 0.20 0.23 0.25
0.60 0.50 0.39 0.38 0.39 0.46 0.49 0.49 0.57 0.58 0.60 0.57 0.57 0.51 0.57 0.59 0.47 0.49 0.34 0.31 0.39 0.53 0.66 0.72 0.62 0.45 0.60 0.36 0.24 0.16 0.14 0.17
0.76 0.81 0.73 0.73 0.62 0.59 0.56 0.57 0.52 0.54 0.55 0.53 0.47 0.57 0.60 0.65 0.62 0.59 0.62 0.68 0.66 0.57 0.59 0.63 0.80 0.92 1.04 0.90 0.76 0.53 0.52 0.53
0.91 0.91 0.88 0.88 0.74 0.69 0.77 0.80 0.79 0.68 0.63 0.60 0.52 0.52 0.64 0.78 0.75 0.76 0.94 0.94 0.81 0.73 0.70 0.62 0.48 0.53 0.68 0.70 0.91 0.95 1.07 0.99